GEFSGL_prec_meanprecacc_006.txt.gz
Total_Precipitation_Accumulation
0.02 0.01 0.01 0.01 0.02 0.06 0.10 0.14 0.17 0.18 0.17 0.15 0.12 0.09 0.05 0.03 0.02 0.01 0.01 0.02 0.03 0.03 0.04 0.07 0.12 0.18 0.21 0.22 0.25 0.27 0.28 0.30 0.28 0.25 0.27 0.18 0.14 0.08 0.04 0.02 0.01 0.01 0.01
0.00 0.00 0.00 0.00 0.00 0.01 0.03 0.07 0.13 0.18 0.19 0.18 0.16 0.13 0.09 0.06 0.05 0.02 0.01 0.01 0.02 0.02 0.02 0.05 0.07 0.10 0.13 0.13 0.14 0.20 0.27 0.33 0.30 0.16 0.13 0.12 0.10 0.06 0.03 0.03 0.03 0.02 0.01
0.00 0.00 0.00 0.00 0.00 0.00 0.00 0.01 0.03 0.08 0.13 0.16 0.16 0.14 0.11 0.09 0.07 0.04 0.02 0.01 0.02 0.01 0.03 0.08 0.09 0.11 0.11 0.04 0.02 0.05 0.15 0.28 0.31 0.19 0.11 0.10 0.10 0.06 0.04 0.04 0.04 0.03 0.03
0.00 0.00 0.00 0.00 0.01 0.02 0.02 0.02 0.02 0.02 0.06 0.10 0.13 0.14 0.13 0.11 0.09 0.06 0.04 0.02 0.02 0.02 0.04 0.05 0.06 0.08 0.09 0.05 0.01 0.02 0.07 0.15 0.19 0.18 0.19 0.23 0.19 0.11 0.06 0.04 0.04 0.04 0.02
0.00 0.00 0.00 0.00 0.01 0.01 0.03 0.03 0.03 0.03 0.04 0.08 0.13 0.13 0.12 0.11 0.08 0.07 0.06 0.03 0.02 0.02 0.03 0.04 0.02 0.02 0.02 0.01 0.00 0.01 0.06 0.11 0.18 0.21 0.33 0.55 0.48 0.31 0.15 0.07 0.04 0.03 0.01
0.00 0.01 0.01 0.01 0.01 0.01 0.01 0.01 0.01 0.01 0.02 0.05 0.09 0.12 0.12 0.10 0.09 0.06 0.04 0.04 0.03 0.02 0.03 0.03 0.03 0.01 0.00 0.00 0.00 0.01 0.02 0.06 0.14 0.25 0.38 0.50 0.52 0.44 0.26 0.12 0.04 0.02 0.02
0.00 0.00 0.00 0.01 0.01 0.01 0.01 0.00 0.00 0.01 0.01 0.02 0.05 0.10 0.11 0.13 0.11 0.06 0.04 0.03 0.03 0.03 0.03 0.04 0.03 0.02 0.00 0.00 0.00 0.00 0.01 0.02 0.05 0.11 0.25 0.38 0.41 0.35 0.21 0.08 0.03 0.03 0.02
0.00 0.00 0.00 0.00 0.00 0.00 0.00 0.01 0.01 0.01 0.01 0.01 0.02 0.06 0.10 0.14 0.16 0.12 0.07 0.04 0.03 0.03 0.02 0.01 0.02 0.02 0.01 0.00 0.00 0.00 0.00 0.01 0.03 0.06 0.12 0.18 0.19 0.15 0.09 0.05 0.04 0.03 0.02
0.00 0.00 0.00 0.00 0.00 0.00 0.00 0.01 0.02 0.02 0.02 0.01 0.01 0.03 0.07 0.13 0.17 0.15 0.12 0.07 0.05 0.04 0.02 0.01 0.01 0.01 0.00 0.00 0.00 0.00 0.00 0.01 0.02 0.02 0.03 0.03 0.02 0.02 0.02 0.02 0.01 0.01 0.01
0.00 0.00 0.00 0.01 0.01 0.01 0.01 0.02 0.02 0.03 0.02 0.01 0.01 0.02 0.04 0.13 0.18 0.17 0.15 0.10 0.08 0.07 0.07 0.04 0.01 0.00 0.00 0.00 0.01 0.00 0.00 0.00 0.00 0.00 0.00 0.00 0.00 0.00 0.00 0.00 0.01 0.01 0.00
0.01 0.01 0.01 0.02 0.03 0.03 0.03 0.03 0.03 0.03 0.03 0.03 0.03 0.04 0.05 0.10 0.21 0.22 0.20 0.16 0.11 0.10 0.10 0.07 0.01 0.00 0.00 0.00 0.01 0.01 0.00 0.00 0.00 0.00 0.00 0.00 0.00 0.00 0.00 0.00 0.00 0.00 0.00
0.02 0.02 0.02 0.02 0.02 0.02 0.04 0.05 0.06 0.06 0.05 0.04 0.04 0.05 0.06 0.07 0.12 0.22 0.19 0.14 0.12 0.09 0.09 0.08 0.02 0.00 0.00 0.00 0.00 0.00 0.00 0.00 0.00 0.00 0.00 0.00 0.00 0.00 0.00 0.00 0.00 0.00 0.00
0.03 0.03 0.03 0.04 0.04 0.05 0.06 0.07 0.08 0.08 0.05 0.03 0.03 0.08 0.11 0.09 0.08 0.17 0.17 0.12 0.11 0.14 0.11 0.10 0.03 0.00 0.00 0.00 0.00 0.00 0.00 0.00 0.00 0.00 0.00 0.00 0.00 0.00 0.00 0.00 0.00 0.00 0.00
0.05 0.05 0.06 0.07 0.07 0.08 0.09 0.09 0.09 0.08 0.07 0.06 0.06 0.12 0.12 0.10 0.07 0.11 0.17 0.14 0.14 0.20 0.16 0.08 0.04 0.00 0.00 0.00 0.00 0.00 0.00 0.00 0.00 0.00 0.00 0.00 0.00 0.00 0.00 0.00 0.00 0.00 0.00
0.11 0.10 0.10 0.10 0.09 0.08 0.08 0.07 0.07 0.07 0.06 0.06 0.08 0.15 0.16 0.14 0.12 0.12 0.17 0.18 0.18 0.21 0.16 0.08 0.04 0.01 0.00 0.00 0.00 0.00 0.00 0.00 0.00 0.00 0.00 0.00 0.00 0.00 0.00 0.00 0.00 0.00 0.00
0.15 0.13 0.11 0.11 0.10 0.10 0.09 0.07 0.04 0.02 0.02 0.02 0.03 0.08 0.13 0.12 0.09 0.07 0.12 0.15 0.16 0.17 0.13 0.07 0.03 0.00 0.00 0.00 0.00 0.00 0.00 0.00 0.00 0.00 0.00 0.00 0.00 0.00 0.00 0.00 0.00 0.00 0.00
0.13 0.12 0.11 0.10 0.08 0.07 0.08 0.08 0.08 0.06 0.02 0.01 0.01 0.02 0.06 0.04 0.03 0.05 0.08 0.10 0.10 0.09 0.06 0.03 0.01 0.00 0.00 0.00 0.00 0.00 0.00 0.00 0.00 0.00 0.00 0.00 0.00 0.00 0.00 0.00 0.00 0.00 0.00
0.12 0.12 0.12 0.11 0.10 0.07 0.05 0.06 0.07 0.09 0.08 0.06 0.03 0.02 0.05 0.03 0.06 0.10 0.08 0.08 0.07 0.05 0.02 0.00 0.00 0.00 0.00 0.00 0.00 0.00 0.00 0.00 0.00 0.00 0.00 0.00 0.00 0.00 0.00 0.00 0.00 0.00 0.00
0.13 0.11 0.10 0.09 0.08 0.06 0.06 0.07 0.08 0.06 0.07 0.14 0.11 0.03 0.05 0.05 0.14 0.21 0.11 0.06 0.04 0.03 0.01 0.00 0.00 0.00 0.00 0.00 0.00 0.00 0.00 0.00 0.00 0.00 0.00 0.00 0.00 0.00 0.00 0.00 0.00 0.00 0.00
0.10 0.08 0.06 0.04 0.04 0.04 0.06 0.09 0.07 0.05 0.07 0.15 0.13 0.05 0.03 0.06 0.19 0.27 0.12 0.04 0.04 0.02 0.00 0.00 0.00 0.00 0.00 0.00 0.00 0.00 0.00 0.00 0.00 0.00 0.00 0.00 0.00 0.00 0.00 0.00 0.00 0.00 0.00
0.07 0.05 0.04 0.03 0.03 0.06 0.08 0.07 0.05 0.06 0.09 0.15 0.14 0.07 0.03 0.06 0.18 0.22 0.08 0.03 0.03 0.02 0.01 0.00 0.00 0.00 0.00 0.00 0.00 0.00 0.00 0.00 0.00 0.00 0.00 0.00 0.00 0.00 0.00 0.00 0.00 0.00 0.00
0.06 0.04 0.05 0.06 0.09 0.11 0.10 0.08 0.09 0.11 0.10 0.12 0.10 0.04 0.03 0.07 0.13 0.13 0.06 0.02 0.01 0.01 0.00 0.00 0.00 0.00 0.00 0.00 0.00 0.00 0.00 0.00 0.00 0.00 0.00 0.00 0.00 0.00 0.00 0.00 0.00 0.00 0.00
0.09 0.08 0.07 0.11 0.13 0.10 0.11 0.12 0.11 0.09 0.08 0.07 0.06 0.04 0.03 0.05 0.06 0.05 0.03 0.01 0.00 0.00 0.00 0.00 0.00 0.00 0.00 0.00 0.00 0.00 0.00 0.00 0.00 0.00 0.00 0.00 0.00 0.00 0.00 0.00 0.00 0.00 0.00
0.04 0.05 0.05 0.05 0.06 0.06 0.08 0.07 0.05 0.05 0.05 0.04 0.04 0.03 0.02 0.02 0.01 0.01 0.01 0.00 0.00 0.00 0.00 0.00 0.00 0.00 0.00 0.00 0.00 0.00 0.00 0.00 0.00 0.00 0.00 0.00 0.00 0.00 0.00 0.00 0.00 0.00 0.00
0.03 0.02 0.01 0.01 0.02 0.03 0.05 0.06 0.06 0.07 0.07 0.04 0.02 0.01 0.01 0.01 0.00 0.00 0.00 0.00 0.00 0.00 0.00 0.00 0.00 0.00 0.00 0.00 0.00 0.00 0.00 0.00 0.00 0.00 0.00 0.00 0.00 0.00 0.00 0.00 0.00 0.00 0.00
0.04 0.05 0.06 0.06 0.06 0.06 0.08 0.10 0.11 0.10 0.07 0.04 0.01 0.01 0.02 0.02 0.01 0.00 0.01 0.01 0.00 0.00 0.00 0.00 0.00 0.00 0.00 0.00 0.00 0.00 0.00 0.00 0.00 0.00 0.00 0.00 0.00 0.00 0.00 0.00 0.00 0.00 0.00

GEFSGL_prec_meanprecacc_012.txt.gz
Total_Precipitation_Accumulation
0.02 0.01 0.01 0.01 0.02 0.06 0.10 0.14 0.17 0.19 0.19 0.17 0.15 0.12 0.08 0.06 0.06 0.05 0.04 0.04 0.04 0.03 0.04 0.07 0.12 0.18 0.21 0.22 0.26 0.29 0.31 0.35 0.31 0.30 0.35 0.31 0.26 0.18 0.12 0.10 0.06 0.03 0.02
0.00 0.00 0.00 0.00 0.00 0.01 0.03 0.07 0.13 0.18 0.19 0.19 0.17 0.14 0.10 0.07 0.07 0.05 0.04 0.04 0.05 0.04 0.03 0.06 0.08 0.10 0.14 0.13 0.15 0.21 0.28 0.38 0.39 0.24 0.21 0.20 0.20 0.17 0.14 0.11 0.07 0.03 0.02
0.00 0.00 0.00 0.00 0.00 0.00 0.00 0.01 0.03 0.08 0.13 0.16 0.16 0.14 0.11 0.10 0.08 0.06 0.05 0.05 0.05 0.05 0.05 0.09 0.10 0.11 0.11 0.05 0.02 0.05 0.15 0.30 0.37 0.28 0.20 0.19 0.18 0.14 0.13 0.11 0.07 0.05 0.03
0.00 0.00 0.00 0.01 0.01 0.02 0.02 0.02 0.02 0.02 0.06 0.10 0.13 0.14 0.13 0.11 0.09 0.08 0.07 0.06 0.05 0.05 0.07 0.08 0.07 0.08 0.09 0.05 0.01 0.02 0.08 0.17 0.23 0.24 0.28 0.34 0.29 0.17 0.13 0.11 0.08 0.05 0.03
0.00 0.00 0.00 0.01 0.01 0.02 0.03 0.04 0.04 0.04 0.04 0.08 0.13 0.14 0.13 0.11 0.08 0.09 0.09 0.07 0.06 0.06 0.08 0.08 0.05 0.03 0.02 0.01 0.00 0.01 0.06 0.12 0.21 0.27 0.42 0.66 0.60 0.39 0.21 0.12 0.09 0.06 0.04
0.01 0.01 0.01 0.01 0.02 0.02 0.02 0.02 0.02 0.03 0.04 0.06 0.10 0.13 0.12 0.10 0.09 0.07 0.07 0.08 0.09 0.09 0.10 0.10 0.07 0.03 0.00 0.00 0.00 0.01 0.02 0.07 0.17 0.29 0.45 0.60 0.62 0.52 0.34 0.20 0.10 0.06 0.06
0.00 0.00 0.00 0.01 0.01 0.02 0.01 0.01 0.02 0.03 0.04 0.05 0.06 0.11 0.12 0.13 0.12 0.07 0.06 0.08 0.09 0.11 0.13 0.13 0.10 0.05 0.01 0.00 0.00 0.00 0.01 0.03 0.07 0.15 0.31 0.47 0.52 0.47 0.33 0.20 0.12 0.08 0.06
0.00 0.00 0.00 0.00 0.00 0.00 0.01 0.01 0.02 0.02 0.03 0.04 0.04 0.08 0.11 0.15 0.16 0.12 0.09 0.08 0.11 0.12 0.13 0.13 0.11 0.06 0.02 0.00 0.00 0.00 0.00 0.01 0.04 0.08 0.16 0.27 0.31 0.28 0.22 0.17 0.14 0.11 0.09
0.01 0.01 0.01 0.01 0.01 0.01 0.01 0.01 0.03 0.03 0.03 0.02 0.02 0.04 0.08 0.14 0.17 0.15 0.13 0.10 0.11 0.14 0.15 0.16 0.13 0.07 0.02 0.00 0.00 0.00 0.01 0.01 0.03 0.05 0.08 0.11 0.12 0.10 0.09 0.10 0.11 0.09 0.08
0.03 0.03 0.02 0.02 0.02 0.02 0.02 0.02 0.03 0.04 0.04 0.02 0.02 0.03 0.05 0.14 0.19 0.18 0.16 0.12 0.13 0.16 0.21 0.22 0.19 0.10 0.03 0.01 0.01 0.00 0.00 0.01 0.01 0.01 0.02 0.03 0.03 0.03 0.03 0.04 0.04 0.04 0.03
0.07 0.06 0.04 0.04 0.05 0.04 0.04 0.04 0.04 0.03 0.03 0.04 0.04 0.06 0.06 0.11 0.22 0.23 0.21 0.18 0.16 0.19 0.26 0.32 0.25 0.16 0.06 0.01 0.01 0.01 0.00 0.01 0.01 0.00 0.00 0.00 0.00 0.00 0.01 0.01 0.01 0.01 0.01
0.07 0.07 0.05 0.05 0.04 0.04 0.05 0.07 0.07 0.07 0.06 0.05 0.05 0.06 0.07 0.07 0.12 0.23 0.20 0.15 0.15 0.17 0.27 0.41 0.37 0.25 0.11 0.04 0.01 0.01 0.00 0.00 0.00 0.00 0.00 0.00 0.00 0.00 0.00 0.00 0.00 0.00 0.00
0.07 0.06 0.06 0.06 0.06 0.07 0.08 0.08 0.09 0.09 0.07 0.04 0.04 0.09 0.12 0.11 0.09 0.17 0.17 0.12 0.13 0.18 0.25 0.45 0.51 0.37 0.18 0.07 0.03 0.01 0.01 0.00 0.00 0.00 0.00 0.00 0.00 0.00 0.00 0.00 0.00 0.00 0.00
0.10 0.09 0.09 0.10 0.10 0.11 0.13 0.13 0.12 0.10 0.10 0.08 0.07 0.13 0.15 0.13 0.10 0.13 0.17 0.14 0.14 0.22 0.23 0.32 0.46 0.43 0.24 0.10 0.04 0.02 0.01 0.00 0.00 0.00 0.00 0.00 0.00 0.00 0.00 0.00 0.00 0.00 0.00
0.17 0.16 0.15 0.15 0.15 0.14 0.14 0.13 0.12 0.10 0.10 0.09 0.10 0.17 0.18 0.16 0.15 0.15 0.19 0.19 0.18 0.23 0.21 0.26 0.38 0.40 0.27 0.10 0.04 0.01 0.01 0.00 0.00 0.00 0.00 0.00 0.00 0.00 0.00 0.00 0.00 0.00 0.00
0.24 0.20 0.18 0.18 0.18 0.17 0.15 0.12 0.08 0.05 0.04 0.04 0.05 0.09 0.14 0.13 0.10 0.08 0.13 0.17 0.17 0.18 0.18 0.22 0.29 0.32 0.25 0.12 0.04 0.02 0.01 0.00 0.00 0.00 0.00 0.00 0.00 0.00 0.00 0.00 0.00 0.00 0.00
0.23 0.21 0.20 0.18 0.16 0.14 0.13 0.11 0.11 0.08 0.03 0.02 0.02 0.04 0.07 0.04 0.04 0.06 0.09 0.12 0.12 0.11 0.11 0.15 0.18 0.20 0.17 0.10 0.04 0.01 0.00 0.00 0.00 0.00 0.00 0.00 0.00 0.00 0.00 0.00 0.00 0.00 0.00
0.20 0.21 0.20 0.18 0.15 0.11 0.08 0.08 0.09 0.11 0.10 0.07 0.04 0.03 0.05 0.03 0.06 0.10 0.10 0.12 0.11 0.08 0.07 0.09 0.11 0.11 0.10 0.06 0.03 0.01 0.00 0.00 0.00 0.00 0.00 0.00 0.00 0.00 0.00 0.00 0.00 0.00 0.00
0.19 0.17 0.14 0.12 0.10 0.07 0.07 0.08 0.09 0.08 0.10 0.16 0.12 0.04 0.06 0.06 0.14 0.22 0.15 0.14 0.11 0.08 0.05 0.05 0.06 0.05 0.04 0.03 0.01 0.00 0.00 0.00 0.00 0.00 0.00 0.00 0.00 0.00 0.00 0.00 0.00 0.00 0.00
0.14 0.12 0.08 0.05 0.05 0.05 0.08 0.10 0.08 0.07 0.09 0.18 0.15 0.06 0.04 0.07 0.20 0.30 0.19 0.17 0.14 0.08 0.05 0.04 0.03 0.02 0.01 0.01 0.00 0.00 0.00 0.00 0.00 0.00 0.00 0.00 0.00 0.00 0.00 0.00 0.00 0.00 0.00
0.09 0.07 0.05 0.03 0.04 0.07 0.10 0.09 0.07 0.10 0.14 0.21 0.19 0.09 0.04 0.08 0.21 0.27 0.18 0.16 0.13 0.08 0.04 0.02 0.01 0.00 0.00 0.00 0.00 0.00 0.00 0.00 0.00 0.00 0.00 0.00 0.00 0.00 0.00 0.00 0.00 0.00 0.00
0.07 0.06 0.06 0.07 0.10 0.12 0.11 0.11 0.14 0.17 0.18 0.20 0.14 0.05 0.06 0.12 0.19 0.20 0.14 0.10 0.07 0.04 0.02 0.01 0.00 0.00 0.00 0.00 0.00 0.00 0.00 0.00 0.00 0.00 0.00 0.00 0.00 0.00 0.00 0.00 0.00 0.00 0.00
0.11 0.10 0.08 0.12 0.15 0.12 0.13 0.15 0.15 0.15 0.14 0.12 0.09 0.07 0.09 0.12 0.12 0.10 0.08 0.05 0.03 0.02 0.01 0.00 0.00 0.00 0.00 0.00 0.00 0.00 0.00 0.00 0.00 0.00 0.00 0.00 0.00 0.00 0.00 0.00 0.00 0.00 0.00
0.08 0.09 0.08 0.06 0.07 0.08 0.10 0.10 0.08 0.07 0.07 0.07 0.07 0.07 0.07 0.06 0.05 0.04 0.03 0.03 0.02 0.01 0.00 0.00 0.00 0.00 0.00 0.00 0.00 0.00 0.00 0.00 0.00 0.00 0.00 0.00 0.00 0.00 0.00 0.00 0.00 0.00 0.00
0.10 0.10 0.07 0.04 0.03 0.04 0.06 0.06 0.07 0.07 0.07 0.05 0.03 0.02 0.02 0.02 0.02 0.01 0.01 0.01 0.01 0.01 0.01 0.00 0.00 0.00 0.00 0.00 0.00 0.00 0.00 0.00 0.00 0.00 0.00 0.00 0.00 0.00 0.00 0.00 0.00 0.00 0.00
0.09 0.11 0.12 0.11 0.09 0.08 0.09 0.11 0.12 0.10 0.08 0.04 0.01 0.01 0.03 0.03 0.01 0.01 0.01 0.01 0.01 0.01 0.01 0.00 0.00 0.00 0.00 0.00 0.00 0.00 0.00 0.00 0.00 0.00 0.00 0.00 0.00 0.00 0.00 0.00 0.00 0.00 0.00

GEFSGL_prec_meanprecacc_018.txt.gz
Total_Precipitation_Accumulation
0.02 0.01 0.01 0.01 0.02 0.06 0.10 0.14 0.17 0.19 0.19 0.17 0.15 0.12 0.10 0.10 0.12 0.13 0.14 0.15 0.14 0.12 0.09 0.09 0.13 0.19 0.21 0.22 0.26 0.29 0.31 0.36 0.32 0.30 0.36 0.32 0.27 0.18 0.13 0.11 0.07 0.05 0.04
0.00 0.00 0.00 0.00 0.00 0.01 0.03 0.07 0.13 0.18 0.19 0.19 0.17 0.14 0.10 0.08 0.09 0.09 0.11 0.14 0.18 0.17 0.15 0.14 0.12 0.13 0.15 0.14 0.15 0.21 0.28 0.38 0.39 0.25 0.21 0.22 0.21 0.18 0.15 0.12 0.09 0.05 0.04
0.00 0.00 0.00 0.00 0.00 0.00 0.01 0.01 0.03 0.08 0.13 0.16 0.16 0.14 0.11 0.10 0.08 0.06 0.07 0.09 0.13 0.15 0.17 0.21 0.19 0.17 0.14 0.06 0.03 0.06 0.15 0.30 0.38 0.28 0.21 0.22 0.21 0.18 0.15 0.12 0.10 0.07 0.04
0.00 0.00 0.00 0.01 0.01 0.02 0.02 0.02 0.02 0.02 0.06 0.10 0.13 0.14 0.13 0.11 0.09 0.08 0.07 0.07 0.07 0.09 0.14 0.17 0.16 0.16 0.15 0.09 0.03 0.02 0.08 0.17 0.23 0.25 0.29 0.38 0.34 0.23 0.15 0.13 0.11 0.08 0.05
0.00 0.00 0.00 0.01 0.01 0.02 0.03 0.04 0.04 0.04 0.04 0.08 0.13 0.14 0.13 0.11 0.09 0.09 0.09 0.07 0.07 0.07 0.09 0.12 0.10 0.10 0.09 0.07 0.04 0.04 0.07 0.12 0.21 0.28 0.44 0.70 0.66 0.46 0.26 0.14 0.11 0.09 0.06
0.01 0.01 0.01 0.02 0.02 0.03 0.03 0.03 0.03 0.03 0.04 0.06 0.10 0.13 0.12 0.11 0.09 0.07 0.07 0.08 0.09 0.09 0.11 0.11 0.09 0.07 0.07 0.06 0.05 0.04 0.04 0.07 0.17 0.30 0.47 0.63 0.66 0.55 0.36 0.21 0.11 0.07 0.08
0.00 0.00 0.01 0.02 0.03 0.03 0.04 0.04 0.04 0.04 0.05 0.06 0.07 0.11 0.12 0.13 0.12 0.07 0.06 0.08 0.09 0.11 0.13 0.14 0.11 0.07 0.06 0.06 0.05 0.04 0.03 0.03 0.07 0.15 0.32 0.49 0.55 0.50 0.35 0.23 0.14 0.10 0.08
0.00 0.01 0.01 0.02 0.03 0.04 0.06 0.06 0.07 0.07 0.07 0.06 0.06 0.08 0.11 0.15 0.17 0.13 0.09 0.08 0.11 0.12 0.13 0.13 0.12 0.09 0.06 0.04 0.04 0.03 0.02 0.02 0.04 0.08 0.17 0.28 0.33 0.31 0.26 0.22 0.19 0.16 0.12
0.02 0.02 0.04 0.05 0.07 0.09 0.10 0.10 0.11 0.10 0.09 0.06 0.05 0.05 0.09 0.14 0.17 0.16 0.14 0.10 0.11 0.14 0.15 0.16 0.15 0.11 0.08 0.06 0.03 0.02 0.02 0.02 0.04 0.06 0.10 0.15 0.18 0.19 0.17 0.18 0.19 0.15 0.14
0.05 0.06 0.06 0.08 0.11 0.14 0.16 0.17 0.16 0.14 0.11 0.08 0.05 0.04 0.06 0.14 0.19 0.18 0.17 0.13 0.13 0.16 0.21 0.23 0.22 0.17 0.12 0.08 0.05 0.03 0.02 0.01 0.01 0.02 0.05 0.09 0.11 0.13 0.14 0.11 0.10 0.09 0.07
0.09 0.09 0.09 0.11 0.14 0.15 0.16 0.16 0.17 0.15 0.14 0.12 0.09 0.07 0.07 0.11 0.22 0.23 0.21 0.18 0.16 0.19 0.26 0.33 0.30 0.28 0.20 0.13 0.09 0.06 0.03 0.02 0.01 0.01 0.03 0.07 0.10 0.11 0.10 0.10 0.08 0.05 0.03
0.10 0.10 0.10 0.11 0.11 0.10 0.13 0.15 0.16 0.18 0.16 0.13 0.12 0.10 0.09 0.08 0.12 0.23 0.20 0.16 0.15 0.17 0.28 0.43 0.45 0.43 0.35 0.24 0.16 0.10 0.06 0.03 0.02 0.02 0.03 0.05 0.08 0.08 0.08 0.07 0.06 0.04 0.02
0.11 0.11 0.10 0.10 0.11 0.12 0.15 0.16 0.16 0.16 0.14 0.09 0.08 0.12 0.13 0.11 0.09 0.17 0.18 0.13 0.13 0.18 0.26 0.48 0.60 0.59 0.50 0.39 0.28 0.19 0.10 0.05 0.02 0.02 0.02 0.02 0.03 0.04 0.04 0.04 0.04 0.03 0.02
0.15 0.14 0.13 0.14 0.15 0.16 0.20 0.21 0.21 0.18 0.15 0.11 0.09 0.14 0.15 0.13 0.10 0.13 0.18 0.14 0.15 0.22 0.24 0.35 0.54 0.64 0.60 0.52 0.41 0.28 0.14 0.07 0.03 0.02 0.01 0.01 0.02 0.02 0.02 0.02 0.02 0.01 0.01
0.22 0.19 0.19 0.19 0.19 0.18 0.19 0.20 0.20 0.19 0.16 0.13 0.13 0.18 0.19 0.16 0.15 0.15 0.19 0.20 0.19 0.23 0.22 0.28 0.45 0.59 0.61 0.56 0.48 0.35 0.20 0.10 0.05 0.03 0.02 0.01 0.02 0.02 0.02 0.02 0.02 0.01 0.01
0.28 0.23 0.21 0.21 0.20 0.20 0.19 0.17 0.14 0.11 0.10 0.09 0.09 0.12 0.16 0.13 0.10 0.08 0.13 0.17 0.18 0.19 0.19 0.24 0.34 0.47 0.56 0.58 0.53 0.41 0.24 0.12 0.05 0.03 0.02 0.02 0.02 0.02 0.02 0.01 0.02 0.02 0.01
0.27 0.23 0.21 0.20 0.18 0.16 0.15 0.14 0.13 0.11 0.07 0.05 0.06 0.07 0.09 0.06 0.04 0.06 0.09 0.12 0.13 0.12 0.12 0.16 0.22 0.30 0.41 0.51 0.51 0.39 0.25 0.14 0.06 0.04 0.03 0.02 0.02 0.02 0.02 0.01 0.01 0.01 0.01
0.23 0.23 0.21 0.19 0.16 0.11 0.09 0.09 0.10 0.12 0.12 0.09 0.07 0.06 0.07 0.05 0.08 0.11 0.10 0.12 0.11 0.09 0.07 0.09 0.13 0.18 0.28 0.41 0.44 0.37 0.26 0.15 0.07 0.04 0.03 0.02 0.01 0.01 0.01 0.01 0.00 0.00 0.00
0.23 0.18 0.14 0.12 0.11 0.08 0.07 0.08 0.09 0.09 0.10 0.17 0.14 0.06 0.08 0.08 0.16 0.23 0.15 0.14 0.11 0.08 0.05 0.06 0.08 0.11 0.19 0.32 0.37 0.32 0.23 0.14 0.06 0.03 0.01 0.01 0.01 0.01 0.01 0.00 0.00 0.00 0.00
0.17 0.14 0.09 0.06 0.05 0.06 0.08 0.10 0.08 0.07 0.10 0.19 0.16 0.07 0.05 0.09 0.22 0.30 0.20 0.17 0.14 0.08 0.05 0.05 0.04 0.06 0.12 0.23 0.29 0.26 0.20 0.11 0.04 0.02 0.01 0.00 0.00 0.00 0.00 0.00 0.00 0.00 0.00
0.12 0.09 0.06 0.04 0.04 0.07 0.10 0.09 0.08 0.10 0.14 0.22 0.20 0.09 0.05 0.09 0.22 0.27 0.18 0.16 0.13 0.09 0.06 0.04 0.03 0.04 0.08 0.16 0.20 0.18 0.13 0.07 0.03 0.01 0.00 0.00 0.00 0.00 0.00 0.00 0.00 0.00 0.00
0.12 0.09 0.07 0.07 0.11 0.12 0.12 0.12 0.15 0.18 0.19 0.21 0.15 0.06 0.07 0.13 0.19 0.20 0.15 0.11 0.08 0.06 0.04 0.03 0.02 0.02 0.04 0.09 0.11 0.10 0.07 0.04 0.01 0.00 0.00 0.00 0.00 0.00 0.00 0.00 0.00 0.00 0.00
0.16 0.14 0.11 0.13 0.16 0.12 0.13 0.15 0.17 0.18 0.17 0.15 0.12 0.10 0.11 0.14 0.13 0.12 0.10 0.08 0.06 0.04 0.03 0.02 0.01 0.01 0.02 0.05 0.06 0.04 0.03 0.01 0.00 0.00 0.00 0.00 0.00 0.00 0.00 0.00 0.00 0.00 0.00
0.12 0.13 0.11 0.08 0.08 0.08 0.10 0.10 0.09 0.09 0.11 0.11 0.11 0.11 0.09 0.08 0.07 0.06 0.06 0.05 0.04 0.03 0.02 0.01 0.01 0.01 0.01 0.02 0.02 0.01 0.01 0.00 0.00 0.00 0.00 0.00 0.00 0.00 0.00 0.00 0.00 0.00 0.00
0.12 0.12 0.10 0.08 0.05 0.04 0.06 0.06 0.07 0.08 0.09 0.07 0.05 0.05 0.04 0.04 0.04 0.04 0.04 0.04 0.03 0.03 0.02 0.01 0.01 0.00 0.00 0.01 0.01 0.00 0.00 0.00 0.00 0.00 0.00 0.00 0.00 0.00 0.00 0.00 0.00 0.00 0.00
0.11 0.13 0.14 0.14 0.11 0.09 0.09 0.11 0.12 0.10 0.08 0.04 0.02 0.02 0.04 0.04 0.03 0.03 0.03 0.04 0.03 0.03 0.02 0.01 0.00 0.00 0.00 0.00 0.00 0.00 0.00 0.00 0.00 0.00 0.00 0.00 0.00 0.00 0.00 0.00 0.00 0.00 0.00

GEFSGL_prec_meanprecacc_024.txt.gz
Total_Precipitation_Accumulation
0.02 0.01 0.01 0.01 0.02 0.06 0.10 0.14 0.17 0.19 0.19 0.18 0.15 0.13 0.10 0.10 0.12 0.14 0.18 0.24 0.30 0.38 0.44 0.41 0.33 0.32 0.30 0.27 0.29 0.30 0.32 0.36 0.33 0.30 0.37 0.34 0.28 0.19 0.13 0.11 0.08 0.06 0.04
0.00 0.00 0.00 0.00 0.00 0.01 0.03 0.07 0.13 0.18 0.20 0.19 0.17 0.14 0.10 0.08 0.09 0.10 0.12 0.17 0.25 0.35 0.50 0.64 0.60 0.48 0.36 0.27 0.24 0.24 0.30 0.39 0.40 0.26 0.23 0.24 0.23 0.20 0.16 0.13 0.09 0.05 0.04
0.00 0.00 0.00 0.00 0.00 0.00 0.01 0.01 0.03 0.08 0.14 0.16 0.16 0.15 0.12 0.10 0.09 0.07 0.07 0.09 0.14 0.20 0.32 0.54 0.72 0.79 0.63 0.37 0.22 0.18 0.22 0.33 0.39 0.30 0.24 0.25 0.23 0.19 0.16 0.13 0.10 0.07 0.05
0.00 0.00 0.00 0.01 0.01 0.02 0.02 0.02 0.02 0.03 0.07 0.11 0.15 0.15 0.14 0.12 0.10 0.08 0.08 0.07 0.08 0.11 0.19 0.28 0.42 0.61 0.72 0.66 0.43 0.26 0.23 0.26 0.28 0.28 0.32 0.41 0.37 0.24 0.17 0.14 0.12 0.09 0.06
0.00 0.00 0.01 0.01 0.01 0.02 0.04 0.04 0.04 0.05 0.06 0.10 0.15 0.16 0.15 0.13 0.09 0.09 0.10 0.08 0.08 0.08 0.11 0.16 0.19 0.28 0.41 0.53 0.55 0.47 0.36 0.28 0.30 0.32 0.47 0.73 0.68 0.48 0.27 0.15 0.11 0.10 0.07
0.01 0.01 0.01 0.02 0.03 0.04 0.04 0.04 0.05 0.06 0.08 0.11 0.15 0.18 0.17 0.12 0.10 0.08 0.08 0.10 0.11 0.12 0.13 0.14 0.13 0.14 0.19 0.29 0.39 0.44 0.44 0.36 0.32 0.37 0.51 0.66 0.68 0.56 0.37 0.21 0.12 0.08 0.09
0.00 0.01 0.01 0.03 0.04 0.05 0.06 0.06 0.07 0.09 0.11 0.12 0.14 0.20 0.23 0.22 0.17 0.09 0.07 0.10 0.13 0.15 0.17 0.18 0.14 0.09 0.10 0.16 0.23 0.30 0.33 0.31 0.29 0.30 0.42 0.55 0.60 0.52 0.37 0.23 0.15 0.11 0.08
0.01 0.01 0.02 0.04 0.06 0.07 0.10 0.11 0.12 0.13 0.14 0.14 0.15 0.19 0.26 0.27 0.25 0.17 0.11 0.11 0.15 0.16 0.18 0.18 0.17 0.12 0.08 0.08 0.13 0.18 0.22 0.23 0.22 0.20 0.27 0.40 0.44 0.38 0.29 0.24 0.20 0.17 0.14
0.02 0.04 0.05 0.08 0.10 0.13 0.15 0.17 0.18 0.19 0.17 0.15 0.14 0.17 0.23 0.28 0.27 0.21 0.16 0.15 0.16 0.18 0.19 0.20 0.19 0.16 0.11 0.06 0.06 0.10 0.15 0.18 0.20 0.18 0.18 0.25 0.29 0.26 0.22 0.20 0.21 0.17 0.17
0.06 0.07 0.08 0.11 0.16 0.19 0.22 0.25 0.25 0.25 0.21 0.17 0.14 0.15 0.18 0.28 0.31 0.23 0.20 0.17 0.17 0.20 0.26 0.27 0.24 0.19 0.15 0.09 0.06 0.06 0.08 0.12 0.15 0.15 0.13 0.14 0.16 0.17 0.17 0.14 0.13 0.11 0.11
0.10 0.10 0.11 0.15 0.18 0.20 0.22 0.24 0.25 0.24 0.23 0.22 0.18 0.17 0.17 0.22 0.31 0.27 0.23 0.22 0.20 0.24 0.31 0.38 0.35 0.29 0.20 0.13 0.09 0.07 0.06 0.09 0.12 0.14 0.14 0.14 0.16 0.16 0.15 0.16 0.14 0.10 0.08
0.11 0.12 0.13 0.14 0.14 0.13 0.18 0.21 0.23 0.25 0.25 0.22 0.21 0.19 0.18 0.16 0.19 0.26 0.21 0.17 0.17 0.21 0.32 0.49 0.51 0.44 0.35 0.24 0.17 0.12 0.08 0.07 0.11 0.15 0.16 0.14 0.14 0.13 0.14 0.16 0.17 0.14 0.10
0.12 0.13 0.13 0.12 0.14 0.16 0.20 0.22 0.22 0.23 0.22 0.18 0.16 0.20 0.22 0.20 0.15 0.19 0.18 0.13 0.13 0.20 0.31 0.52 0.64 0.60 0.51 0.40 0.29 0.22 0.14 0.10 0.10 0.12 0.13 0.11 0.08 0.08 0.10 0.14 0.18 0.17 0.15
0.16 0.16 0.15 0.16 0.17 0.19 0.24 0.27 0.29 0.26 0.23 0.19 0.16 0.20 0.21 0.20 0.16 0.17 0.19 0.15 0.15 0.23 0.26 0.37 0.55 0.65 0.61 0.54 0.44 0.32 0.22 0.16 0.14 0.13 0.12 0.10 0.08 0.08 0.09 0.09 0.10 0.11 0.12
0.24 0.21 0.20 0.21 0.21 0.20 0.23 0.25 0.25 0.25 0.21 0.19 0.19 0.24 0.24 0.21 0.19 0.17 0.22 0.23 0.22 0.27 0.26 0.33 0.49 0.62 0.65 0.60 0.53 0.42 0.32 0.27 0.23 0.19 0.17 0.12 0.10 0.09 0.09 0.07 0.06 0.05 0.05
0.31 0.25 0.22 0.22 0.23 0.22 0.21 0.20 0.16 0.13 0.12 0.11 0.12 0.15 0.19 0.16 0.11 0.08 0.13 0.18 0.19 0.20 0.22 0.29 0.39 0.52 0.62 0.64 0.62 0.54 0.42 0.34 0.28 0.26 0.22 0.14 0.11 0.09 0.08 0.07 0.06 0.05 0.04
0.30 0.26 0.23 0.21 0.20 0.18 0.16 0.17 0.18 0.15 0.09 0.07 0.08 0.09 0.10 0.07 0.05 0.06 0.09 0.13 0.13 0.13 0.15 0.22 0.27 0.36 0.49 0.59 0.62 0.56 0.47 0.40 0.34 0.33 0.29 0.19 0.13 0.09 0.07 0.06 0.05 0.05 0.04
0.26 0.26 0.23 0.21 0.18 0.14 0.11 0.11 0.13 0.18 0.18 0.14 0.09 0.08 0.09 0.07 0.09 0.11 0.11 0.13 0.12 0.10 0.10 0.15 0.18 0.24 0.35 0.51 0.58 0.56 0.53 0.48 0.43 0.39 0.34 0.25 0.16 0.10 0.07 0.05 0.04 0.04 0.03
0.26 0.21 0.16 0.14 0.14 0.11 0.10 0.11 0.13 0.14 0.16 0.22 0.17 0.07 0.10 0.10 0.18 0.24 0.16 0.16 0.14 0.10 0.08 0.10 0.12 0.17 0.27 0.43 0.53 0.55 0.54 0.50 0.46 0.42 0.36 0.28 0.19 0.11 0.07 0.04 0.04 0.03 0.03
0.20 0.18 0.12 0.07 0.07 0.09 0.12 0.14 0.12 0.12 0.15 0.24 0.21 0.10 0.07 0.11 0.24 0.31 0.21 0.20 0.17 0.12 0.08 0.08 0.08 0.11 0.22 0.36 0.48 0.53 0.55 0.51 0.44 0.39 0.34 0.26 0.20 0.12 0.08 0.05 0.03 0.03 0.02
0.15 0.12 0.09 0.05 0.06 0.10 0.14 0.14 0.13 0.16 0.20 0.27 0.23 0.12 0.07 0.12 0.26 0.29 0.20 0.18 0.15 0.11 0.08 0.07 0.06 0.08 0.17 0.30 0.40 0.47 0.52 0.48 0.39 0.33 0.29 0.23 0.16 0.11 0.07 0.05 0.03 0.02 0.02
0.14 0.12 0.09 0.09 0.13 0.15 0.15 0.17 0.21 0.24 0.24 0.27 0.19 0.08 0.08 0.15 0.23 0.22 0.16 0.13 0.10 0.08 0.06 0.05 0.05 0.07 0.14 0.24 0.31 0.36 0.44 0.42 0.33 0.25 0.22 0.17 0.12 0.08 0.05 0.03 0.02 0.02 0.01
0.18 0.17 0.13 0.14 0.18 0.15 0.16 0.20 0.23 0.24 0.22 0.21 0.17 0.13 0.14 0.16 0.15 0.14 0.12 0.09 0.07 0.06 0.05 0.05 0.06 0.07 0.12 0.21 0.24 0.26 0.32 0.31 0.23 0.16 0.14 0.11 0.08 0.04 0.03 0.02 0.01 0.01 0.01
0.15 0.16 0.14 0.10 0.10 0.11 0.13 0.13 0.12 0.13 0.15 0.15 0.15 0.14 0.12 0.11 0.10 0.08 0.08 0.07 0.06 0.05 0.04 0.04 0.05 0.06 0.11 0.17 0.18 0.20 0.23 0.21 0.15 0.10 0.08 0.06 0.04 0.02 0.01 0.01 0.01 0.01 0.00
0.14 0.14 0.12 0.10 0.07 0.07 0.08 0.09 0.10 0.11 0.13 0.12 0.10 0.09 0.08 0.08 0.08 0.08 0.09 0.09 0.07 0.06 0.05 0.05 0.05 0.06 0.10 0.11 0.12 0.13 0.15 0.13 0.09 0.06 0.04 0.03 0.02 0.01 0.00 0.00 0.00 0.00 0.00
0.11 0.14 0.15 0.16 0.13 0.11 0.10 0.13 0.14 0.13 0.11 0.08 0.06 0.07 0.09 0.10 0.09 0.08 0.09 0.09 0.09 0.07 0.06 0.06 0.06 0.07 0.08 0.09 0.08 0.08 0.07 0.05 0.03 0.03 0.01 0.01 0.01 0.00 0.00 0.00 0.00 0.00 0.00

GEFSGL_prec_meanprecacc_030.txt.gz
Total_Precipitation_Accumulation
0.02 0.01 0.01 0.01 0.02 0.06 0.10 0.15 0.18 0.19 0.20 0.18 0.16 0.13 0.11 0.11 0.13 0.16 0.19 0.25 0.31 0.40 0.49 0.50 0.48 0.58 0.62 0.56 0.52 0.46 0.44 0.45 0.42 0.41 0.48 0.42 0.31 0.19 0.14 0.12 0.08 0.06 0.04
0.00 0.00 0.00 0.00 0.00 0.01 0.03 0.07 0.14 0.19 0.20 0.20 0.18 0.16 0.11 0.09 0.10 0.12 0.14 0.18 0.26 0.36 0.52 0.68 0.69 0.64 0.61 0.57 0.54 0.53 0.53 0.57 0.54 0.43 0.41 0.37 0.31 0.25 0.19 0.14 0.09 0.05 0.04
0.00 0.00 0.00 0.00 0.01 0.01 0.01 0.01 0.03 0.09 0.15 0.18 0.18 0.17 0.15 0.13 0.11 0.10 0.10 0.12 0.17 0.22 0.34 0.57 0.76 0.89 0.82 0.62 0.51 0.47 0.51 0.59 0.60 0.51 0.44 0.43 0.37 0.28 0.20 0.14 0.11 0.07 0.05
0.00 0.00 0.00 0.01 0.02 0.03 0.03 0.03 0.03 0.04 0.08 0.13 0.17 0.19 0.17 0.16 0.14 0.12 0.12 0.12 0.13 0.14 0.21 0.31 0.44 0.65 0.82 0.86 0.73 0.58 0.54 0.57 0.57 0.53 0.56 0.63 0.55 0.37 0.21 0.15 0.13 0.09 0.06
0.01 0.01 0.01 0.01 0.02 0.03 0.04 0.05 0.06 0.06 0.07 0.13 0.19 0.21 0.20 0.18 0.12 0.13 0.16 0.13 0.14 0.14 0.15 0.19 0.22 0.30 0.44 0.61 0.73 0.77 0.72 0.63 0.62 0.61 0.74 0.98 0.88 0.61 0.33 0.17 0.13 0.10 0.07
0.01 0.02 0.02 0.03 0.04 0.05 0.05 0.05 0.06 0.08 0.12 0.15 0.19 0.23 0.23 0.17 0.12 0.11 0.13 0.16 0.19 0.21 0.21 0.20 0.17 0.17 0.21 0.32 0.45 0.59 0.73 0.74 0.71 0.70 0.81 0.96 0.93 0.73 0.48 0.27 0.13 0.08 0.10
0.01 0.01 0.02 0.04 0.06 0.07 0.07 0.08 0.11 0.14 0.16 0.18 0.19 0.27 0.31 0.30 0.21 0.13 0.09 0.15 0.20 0.25 0.28 0.28 0.19 0.11 0.14 0.18 0.25 0.35 0.44 0.56 0.66 0.71 0.78 0.89 0.94 0.80 0.56 0.32 0.18 0.13 0.08
0.02 0.02 0.04 0.06 0.07 0.09 0.12 0.15 0.18 0.21 0.21 0.21 0.22 0.27 0.36 0.36 0.30 0.21 0.14 0.16 0.22 0.26 0.29 0.29 0.25 0.19 0.16 0.16 0.19 0.22 0.27 0.32 0.40 0.51 0.62 0.75 0.83 0.80 0.62 0.45 0.33 0.22 0.14
0.03 0.05 0.07 0.09 0.13 0.16 0.18 0.22 0.25 0.26 0.24 0.23 0.22 0.26 0.34 0.40 0.35 0.24 0.20 0.22 0.25 0.27 0.28 0.29 0.29 0.25 0.18 0.12 0.16 0.18 0.21 0.25 0.29 0.36 0.46 0.58 0.66 0.69 0.66 0.51 0.37 0.21 0.17
0.07 0.08 0.10 0.13 0.19 0.23 0.27 0.31 0.33 0.33 0.29 0.25 0.22 0.24 0.30 0.41 0.41 0.27 0.23 0.25 0.29 0.32 0.40 0.41 0.35 0.31 0.24 0.13 0.13 0.15 0.16 0.19 0.22 0.24 0.29 0.38 0.45 0.49 0.53 0.44 0.29 0.16 0.11
0.11 0.11 0.13 0.17 0.22 0.24 0.27 0.31 0.33 0.33 0.32 0.31 0.27 0.27 0.29 0.34 0.40 0.30 0.26 0.29 0.34 0.40 0.47 0.53 0.46 0.36 0.24 0.16 0.13 0.15 0.13 0.16 0.20 0.23 0.26 0.30 0.39 0.46 0.44 0.44 0.36 0.19 0.09
0.12 0.13 0.15 0.16 0.17 0.17 0.24 0.28 0.32 0.35 0.34 0.32 0.30 0.30 0.31 0.28 0.27 0.30 0.22 0.22 0.28 0.40 0.51 0.65 0.65 0.54 0.39 0.26 0.18 0.15 0.11 0.11 0.17 0.23 0.26 0.28 0.32 0.35 0.37 0.41 0.40 0.30 0.16
0.13 0.14 0.14 0.15 0.17 0.22 0.28 0.30 0.32 0.34 0.33 0.29 0.26 0.31 0.35 0.33 0.25 0.21 0.19 0.14 0.17 0.32 0.47 0.69 0.78 0.68 0.55 0.42 0.31 0.23 0.16 0.12 0.14 0.17 0.20 0.22 0.24 0.26 0.29 0.36 0.38 0.31 0.21
0.18 0.17 0.17 0.19 0.21 0.26 0.34 0.36 0.39 0.38 0.32 0.27 0.24 0.30 0.33 0.33 0.28 0.24 0.23 0.17 0.18 0.28 0.34 0.46 0.62 0.69 0.64 0.58 0.46 0.33 0.23 0.17 0.16 0.16 0.18 0.21 0.26 0.28 0.27 0.25 0.26 0.23 0.18
0.25 0.22 0.22 0.23 0.25 0.27 0.32 0.35 0.31 0.32 0.24 0.22 0.23 0.31 0.34 0.34 0.28 0.23 0.29 0.31 0.30 0.33 0.34 0.43 0.57 0.68 0.69 0.66 0.60 0.48 0.36 0.28 0.24 0.22 0.25 0.25 0.27 0.28 0.23 0.17 0.16 0.13 0.11
0.32 0.26 0.24 0.24 0.27 0.30 0.29 0.30 0.24 0.15 0.12 0.11 0.12 0.16 0.21 0.19 0.12 0.09 0.14 0.19 0.20 0.22 0.27 0.41 0.53 0.65 0.73 0.73 0.71 0.63 0.49 0.39 0.32 0.30 0.31 0.28 0.25 0.26 0.21 0.14 0.11 0.10 0.08
0.31 0.27 0.24 0.24 0.27 0.27 0.26 0.29 0.32 0.26 0.12 0.08 0.08 0.09 0.11 0.07 0.05 0.06 0.09 0.13 0.13 0.13 0.17 0.31 0.40 0.51 0.64 0.73 0.73 0.65 0.55 0.47 0.41 0.40 0.40 0.36 0.28 0.23 0.20 0.14 0.10 0.09 0.08
0.27 0.27 0.25 0.25 0.27 0.24 0.22 0.24 0.27 0.35 0.33 0.23 0.12 0.09 0.09 0.07 0.09 0.11 0.11 0.13 0.12 0.10 0.12 0.22 0.29 0.38 0.52 0.66 0.70 0.65 0.61 0.56 0.51 0.48 0.48 0.45 0.35 0.25 0.19 0.14 0.09 0.06 0.06
0.26 0.22 0.18 0.18 0.20 0.22 0.22 0.23 0.25 0.29 0.34 0.37 0.27 0.10 0.10 0.10 0.18 0.24 0.16 0.17 0.19 0.15 0.13 0.18 0.23 0.29 0.41 0.58 0.67 0.66 0.64 0.58 0.54 0.52 0.52 0.48 0.42 0.30 0.21 0.14 0.10 0.08 0.05
0.20 0.19 0.13 0.09 0.12 0.19 0.24 0.25 0.23 0.26 0.30 0.38 0.33 0.18 0.10 0.13 0.27 0.33 0.22 0.24 0.25 0.21 0.18 0.19 0.20 0.24 0.35 0.50 0.60 0.63 0.65 0.59 0.53 0.52 0.54 0.49 0.43 0.34 0.25 0.17 0.11 0.08 0.05
0.15 0.13 0.11 0.07 0.11 0.19 0.23 0.23 0.23 0.28 0.33 0.39 0.34 0.16 0.09 0.18 0.35 0.37 0.26 0.24 0.23 0.20 0.19 0.16 0.14 0.18 0.28 0.41 0.49 0.54 0.61 0.58 0.50 0.46 0.50 0.51 0.42 0.36 0.29 0.20 0.12 0.08 0.06
0.15 0.13 0.12 0.11 0.17 0.21 0.20 0.25 0.32 0.35 0.35 0.37 0.29 0.11 0.08 0.18 0.31 0.31 0.24 0.19 0.16 0.13 0.12 0.09 0.09 0.13 0.21 0.32 0.39 0.44 0.53 0.52 0.45 0.41 0.44 0.50 0.45 0.35 0.30 0.24 0.16 0.11 0.08
0.19 0.18 0.15 0.16 0.21 0.19 0.20 0.26 0.33 0.33 0.31 0.30 0.25 0.19 0.17 0.21 0.22 0.20 0.19 0.15 0.12 0.12 0.10 0.10 0.11 0.14 0.21 0.29 0.31 0.34 0.42 0.42 0.37 0.33 0.37 0.44 0.43 0.35 0.29 0.23 0.17 0.12 0.09
0.15 0.17 0.15 0.12 0.12 0.14 0.18 0.19 0.20 0.22 0.22 0.22 0.22 0.20 0.18 0.19 0.18 0.15 0.15 0.14 0.13 0.12 0.10 0.12 0.12 0.13 0.20 0.24 0.26 0.29 0.36 0.36 0.33 0.30 0.31 0.36 0.35 0.32 0.26 0.21 0.15 0.12 0.09
0.14 0.15 0.14 0.12 0.09 0.09 0.12 0.15 0.17 0.19 0.22 0.20 0.16 0.15 0.15 0.15 0.16 0.16 0.16 0.16 0.14 0.13 0.12 0.13 0.13 0.15 0.17 0.18 0.20 0.25 0.31 0.33 0.33 0.31 0.32 0.33 0.30 0.27 0.23 0.19 0.15 0.12 0.09
0.12 0.14 0.16 0.18 0.15 0.13 0.14 0.18 0.21 0.19 0.20 0.17 0.16 0.15 0.18 0.19 0.19 0.18 0.18 0.17 0.16 0.15 0.16 0.17 0.18 0.18 0.19 0.18 0.18 0.22 0.25 0.26 0.28 0.29 0.28 0.28 0.28 0.24 0.21 0.18 0.14 0.11 0.08

GEFSGL_prec_meanprecacc_036.txt.gz
Total_Precipitation_Accumulation
0.02 0.01 0.01 0.01 0.02 0.06 0.10 0.15 0.18 0.19 0.20 0.19 0.16 0.14 0.11 0.11 0.13 0.16 0.20 0.25 0.32 0.41 0.49 0.50 0.49 0.60 0.68 0.64 0.62 0.61 0.62 0.63 0.58 0.54 0.63 0.60 0.46 0.27 0.17 0.14 0.09 0.06 0.05
0.00 0.00 0.00 0.00 0.00 0.01 0.03 0.08 0.14 0.19 0.20 0.20 0.18 0.16 0.11 0.09 0.10 0.12 0.14 0.19 0.27 0.37 0.53 0.68 0.70 0.65 0.63 0.62 0.62 0.63 0.66 0.74 0.71 0.60 0.60 0.59 0.50 0.37 0.26 0.17 0.10 0.06 0.04
0.00 0.00 0.00 0.00 0.01 0.01 0.01 0.01 0.03 0.09 0.15 0.18 0.18 0.17 0.15 0.13 0.11 0.10 0.11 0.13 0.18 0.23 0.36 0.59 0.77 0.90 0.82 0.64 0.55 0.54 0.61 0.74 0.79 0.71 0.68 0.72 0.66 0.49 0.29 0.17 0.12 0.08 0.05
0.00 0.00 0.00 0.01 0.02 0.03 0.03 0.03 0.03 0.04 0.08 0.13 0.17 0.19 0.18 0.16 0.14 0.12 0.12 0.13 0.13 0.16 0.23 0.33 0.46 0.66 0.82 0.87 0.74 0.61 0.61 0.68 0.74 0.75 0.83 0.98 0.91 0.68 0.37 0.21 0.15 0.10 0.06
0.01 0.01 0.01 0.01 0.02 0.03 0.04 0.05 0.06 0.06 0.07 0.13 0.19 0.21 0.20 0.18 0.12 0.13 0.16 0.14 0.15 0.15 0.18 0.22 0.25 0.33 0.46 0.62 0.74 0.79 0.75 0.69 0.74 0.79 0.99 1.33 1.26 0.92 0.48 0.25 0.18 0.13 0.08
0.01 0.02 0.02 0.03 0.04 0.05 0.05 0.05 0.07 0.08 0.12 0.15 0.19 0.23 0.23 0.17 0.12 0.11 0.13 0.16 0.20 0.24 0.24 0.22 0.20 0.20 0.24 0.34 0.46 0.60 0.74 0.77 0.77 0.82 0.99 1.25 1.28 1.05 0.72 0.41 0.21 0.13 0.12
0.01 0.02 0.02 0.04 0.06 0.07 0.07 0.08 0.11 0.14 0.17 0.18 0.19 0.27 0.31 0.30 0.21 0.13 0.10 0.15 0.21 0.26 0.30 0.31 0.21 0.13 0.17 0.21 0.28 0.36 0.45 0.57 0.70 0.78 0.91 1.08 1.27 1.22 0.91 0.50 0.28 0.19 0.12
0.02 0.02 0.04 0.06 0.07 0.09 0.12 0.15 0.18 0.21 0.21 0.21 0.22 0.27 0.36 0.36 0.30 0.21 0.14 0.16 0.23 0.26 0.30 0.31 0.28 0.21 0.20 0.21 0.24 0.25 0.28 0.33 0.41 0.54 0.68 0.89 1.09 1.23 1.15 0.81 0.53 0.34 0.20
0.03 0.05 0.07 0.09 0.13 0.16 0.18 0.22 0.25 0.27 0.24 0.23 0.23 0.26 0.35 0.40 0.35 0.25 0.21 0.22 0.26 0.28 0.30 0.32 0.33 0.28 0.21 0.18 0.23 0.23 0.24 0.26 0.30 0.37 0.49 0.67 0.86 1.04 1.17 1.06 0.69 0.36 0.26
0.07 0.08 0.10 0.14 0.19 0.23 0.27 0.31 0.33 0.34 0.29 0.26 0.22 0.25 0.30 0.42 0.41 0.28 0.24 0.25 0.30 0.33 0.42 0.44 0.41 0.37 0.30 0.19 0.20 0.22 0.21 0.21 0.24 0.26 0.31 0.43 0.58 0.74 0.93 0.91 0.72 0.40 0.22
0.11 0.11 0.13 0.17 0.22 0.24 0.28 0.31 0.34 0.34 0.33 0.31 0.28 0.28 0.30 0.35 0.41 0.31 0.26 0.30 0.35 0.42 0.50 0.59 0.54 0.44 0.32 0.23 0.20 0.22 0.19 0.22 0.25 0.25 0.27 0.33 0.48 0.63 0.73 0.82 0.76 0.51 0.25
0.12 0.13 0.15 0.16 0.17 0.17 0.24 0.28 0.32 0.36 0.35 0.33 0.31 0.30 0.32 0.29 0.28 0.31 0.23 0.22 0.30 0.44 0.57 0.72 0.75 0.63 0.46 0.32 0.25 0.22 0.19 0.19 0.24 0.27 0.29 0.31 0.37 0.47 0.59 0.72 0.77 0.64 0.38
0.13 0.14 0.14 0.15 0.17 0.22 0.29 0.31 0.33 0.36 0.34 0.29 0.27 0.31 0.35 0.34 0.26 0.22 0.19 0.14 0.19 0.37 0.54 0.77 0.86 0.75 0.62 0.48 0.37 0.30 0.23 0.19 0.21 0.23 0.22 0.24 0.29 0.36 0.48 0.64 0.74 0.68 0.52
0.18 0.17 0.17 0.19 0.21 0.26 0.34 0.37 0.40 0.39 0.34 0.28 0.25 0.30 0.33 0.34 0.29 0.25 0.24 0.18 0.19 0.31 0.39 0.53 0.69 0.75 0.69 0.62 0.51 0.38 0.29 0.24 0.22 0.22 0.22 0.24 0.31 0.39 0.45 0.49 0.56 0.56 0.49
0.25 0.23 0.22 0.23 0.25 0.27 0.32 0.36 0.33 0.33 0.26 0.22 0.24 0.31 0.34 0.34 0.28 0.23 0.30 0.32 0.31 0.35 0.37 0.49 0.63 0.72 0.73 0.70 0.65 0.53 0.40 0.34 0.29 0.27 0.29 0.29 0.33 0.39 0.40 0.39 0.42 0.40 0.32
0.32 0.26 0.24 0.24 0.28 0.30 0.30 0.31 0.25 0.16 0.13 0.12 0.12 0.16 0.21 0.19 0.12 0.09 0.14 0.19 0.20 0.22 0.28 0.45 0.58 0.70 0.77 0.78 0.76 0.67 0.54 0.43 0.35 0.33 0.34 0.32 0.32 0.37 0.36 0.32 0.34 0.35 0.29
0.31 0.27 0.24 0.24 0.27 0.27 0.27 0.30 0.34 0.28 0.13 0.08 0.08 0.09 0.11 0.07 0.05 0.06 0.09 0.13 0.13 0.13 0.17 0.33 0.44 0.55 0.68 0.78 0.78 0.70 0.59 0.50 0.43 0.41 0.43 0.40 0.34 0.34 0.33 0.28 0.25 0.28 0.29
0.27 0.27 0.25 0.25 0.27 0.25 0.24 0.26 0.31 0.38 0.34 0.24 0.13 0.09 0.09 0.07 0.09 0.11 0.11 0.13 0.12 0.10 0.13 0.23 0.32 0.43 0.56 0.69 0.73 0.69 0.64 0.59 0.54 0.49 0.50 0.49 0.43 0.34 0.32 0.28 0.22 0.18 0.21
0.26 0.22 0.18 0.18 0.21 0.23 0.24 0.25 0.28 0.31 0.35 0.38 0.28 0.10 0.10 0.11 0.18 0.24 0.16 0.17 0.19 0.15 0.13 0.18 0.24 0.31 0.44 0.60 0.70 0.70 0.68 0.62 0.57 0.55 0.54 0.52 0.49 0.40 0.31 0.27 0.24 0.20 0.15
0.20 0.19 0.13 0.09 0.13 0.20 0.25 0.27 0.25 0.28 0.32 0.39 0.35 0.18 0.10 0.14 0.27 0.33 0.22 0.24 0.25 0.21 0.19 0.20 0.21 0.25 0.37 0.52 0.62 0.67 0.69 0.64 0.58 0.56 0.57 0.53 0.48 0.42 0.33 0.27 0.24 0.21 0.14
0.15 0.13 0.11 0.08 0.12 0.20 0.24 0.25 0.25 0.30 0.35 0.41 0.35 0.17 0.10 0.18 0.36 0.39 0.27 0.25 0.24 0.21 0.20 0.18 0.16 0.19 0.30 0.43 0.51 0.57 0.65 0.61 0.53 0.50 0.54 0.55 0.46 0.41 0.35 0.28 0.23 0.18 0.14
0.15 0.13 0.12 0.11 0.18 0.22 0.20 0.26 0.34 0.37 0.37 0.39 0.31 0.13 0.09 0.19 0.32 0.33 0.26 0.21 0.18 0.16 0.13 0.11 0.10 0.14 0.23 0.34 0.40 0.46 0.55 0.54 0.47 0.44 0.47 0.54 0.49 0.41 0.36 0.32 0.25 0.21 0.17
0.19 0.18 0.15 0.16 0.21 0.19 0.21 0.28 0.35 0.35 0.34 0.32 0.27 0.21 0.19 0.23 0.24 0.23 0.22 0.19 0.16 0.15 0.12 0.12 0.13 0.16 0.23 0.31 0.33 0.36 0.43 0.44 0.38 0.35 0.39 0.47 0.47 0.41 0.35 0.30 0.25 0.21 0.18
0.15 0.17 0.15 0.12 0.12 0.15 0.18 0.20 0.22 0.23 0.24 0.24 0.24 0.22 0.21 0.22 0.21 0.19 0.18 0.18 0.18 0.17 0.16 0.16 0.15 0.16 0.23 0.27 0.28 0.31 0.37 0.38 0.35 0.32 0.33 0.38 0.38 0.37 0.33 0.29 0.24 0.21 0.18
0.14 0.15 0.14 0.12 0.09 0.09 0.13 0.16 0.19 0.21 0.24 0.22 0.19 0.18 0.18 0.19 0.20 0.20 0.20 0.20 0.18 0.18 0.18 0.19 0.18 0.20 0.22 0.22 0.23 0.27 0.33 0.35 0.35 0.33 0.35 0.36 0.34 0.32 0.31 0.28 0.25 0.23 0.20
0.12 0.14 0.16 0.18 0.16 0.13 0.14 0.20 0.23 0.22 0.23 0.20 0.18 0.18 0.22 0.25 0.24 0.23 0.24 0.22 0.21 0.22 0.23 0.24 0.25 0.24 0.23 0.22 0.21 0.24 0.27 0.29 0.32 0.35 0.35 0.34 0.33 0.31 0.30 0.30 0.28 0.26 0.23

GEFSGL_prec_meanprecacc_042.txt.gz
Total_Precipitation_Accumulation
0.02 0.01 0.01 0.01 0.02 0.06 0.10 0.15 0.18 0.19 0.20 0.19 0.16 0.14 0.11 0.11 0.13 0.16 0.20 0.25 0.32 0.41 0.49 0.50 0.49 0.61 0.69 0.64 0.63 0.62 0.66 0.70 0.67 0.65 0.76 0.77 0.61 0.39 0.29 0.24 0.18 0.15 0.11
0.00 0.00 0.00 0.00 0.00 0.01 0.03 0.08 0.14 0.19 0.20 0.20 0.18 0.16 0.11 0.09 0.10 0.12 0.14 0.19 0.27 0.37 0.53 0.68 0.70 0.65 0.63 0.62 0.62 0.63 0.68 0.78 0.78 0.69 0.73 0.79 0.70 0.55 0.41 0.30 0.21 0.14 0.11
0.00 0.00 0.00 0.00 0.01 0.01 0.01 0.01 0.03 0.09 0.15 0.18 0.18 0.17 0.15 0.13 0.11 0.10 0.11 0.13 0.18 0.23 0.36 0.59 0.77 0.90 0.82 0.64 0.55 0.54 0.62 0.76 0.84 0.79 0.78 0.88 0.88 0.72 0.50 0.34 0.23 0.16 0.12
0.00 0.00 0.00 0.01 0.02 0.03 0.03 0.03 0.03 0.04 0.08 0.13 0.17 0.19 0.18 0.16 0.14 0.12 0.12 0.13 0.13 0.16 0.23 0.33 0.46 0.66 0.82 0.87 0.74 0.61 0.61 0.69 0.77 0.81 0.92 1.13 1.13 0.94 0.61 0.39 0.29 0.18 0.12
0.01 0.01 0.01 0.01 0.02 0.03 0.04 0.05 0.06 0.06 0.07 0.13 0.19 0.21 0.20 0.18 0.12 0.13 0.16 0.14 0.15 0.15 0.18 0.22 0.25 0.33 0.46 0.62 0.74 0.79 0.75 0.70 0.75 0.83 1.06 1.46 1.47 1.16 0.71 0.44 0.33 0.22 0.13
0.01 0.02 0.02 0.03 0.04 0.05 0.05 0.05 0.07 0.08 0.12 0.15 0.19 0.23 0.23 0.17 0.12 0.11 0.13 0.16 0.20 0.24 0.24 0.22 0.20 0.20 0.24 0.34 0.47 0.60 0.74 0.77 0.78 0.83 1.04 1.34 1.46 1.30 0.97 0.67 0.40 0.23 0.17
0.01 0.02 0.02 0.04 0.06 0.07 0.07 0.08 0.11 0.14 0.17 0.18 0.19 0.27 0.31 0.30 0.21 0.13 0.10 0.15 0.21 0.26 0.30 0.31 0.21 0.14 0.17 0.21 0.28 0.37 0.46 0.57 0.70 0.78 0.93 1.14 1.41 1.48 1.21 0.78 0.49 0.35 0.20
0.02 0.02 0.04 0.06 0.07 0.09 0.12 0.15 0.18 0.21 0.21 0.21 0.22 0.27 0.36 0.36 0.30 0.21 0.14 0.16 0.23 0.26 0.30 0.31 0.28 0.22 0.20 0.22 0.24 0.25 0.28 0.33 0.41 0.54 0.69 0.92 1.19 1.47 1.52 1.19 0.86 0.59 0.36
0.03 0.05 0.07 0.09 0.13 0.16 0.18 0.22 0.25 0.27 0.24 0.23 0.23 0.26 0.35 0.40 0.35 0.25 0.21 0.22 0.26 0.28 0.30 0.32 0.33 0.28 0.21 0.19 0.23 0.24 0.24 0.26 0.30 0.37 0.49 0.69 0.93 1.22 1.51 1.55 1.15 0.68 0.46
0.07 0.08 0.10 0.14 0.19 0.23 0.27 0.31 0.33 0.34 0.29 0.26 0.22 0.25 0.30 0.42 0.41 0.28 0.24 0.26 0.30 0.34 0.42 0.45 0.41 0.37 0.30 0.19 0.21 0.23 0.21 0.22 0.25 0.26 0.31 0.44 0.61 0.85 1.16 1.31 1.22 0.79 0.44
0.11 0.11 0.13 0.17 0.22 0.24 0.28 0.31 0.34 0.34 0.33 0.31 0.28 0.28 0.30 0.35 0.41 0.31 0.26 0.30 0.35 0.43 0.51 0.59 0.54 0.44 0.33 0.24 0.21 0.22 0.19 0.23 0.26 0.27 0.28 0.34 0.50 0.70 0.88 1.09 1.15 0.95 0.56
0.12 0.13 0.15 0.16 0.17 0.17 0.24 0.28 0.32 0.36 0.35 0.33 0.31 0.30 0.32 0.29 0.28 0.31 0.23 0.22 0.30 0.44 0.57 0.73 0.75 0.63 0.47 0.33 0.27 0.24 0.21 0.21 0.26 0.29 0.30 0.32 0.39 0.51 0.69 0.92 1.08 1.01 0.76
0.13 0.14 0.14 0.15 0.17 0.22 0.29 0.31 0.33 0.36 0.34 0.30 0.27 0.31 0.35 0.34 0.26 0.22 0.19 0.14 0.19 0.38 0.55 0.78 0.87 0.76 0.63 0.49 0.39 0.34 0.28 0.23 0.25 0.25 0.24 0.25 0.30 0.38 0.54 0.80 1.06 1.08 0.94
0.18 0.17 0.17 0.19 0.21 0.26 0.34 0.37 0.40 0.39 0.34 0.28 0.25 0.31 0.33 0.34 0.29 0.25 0.24 0.18 0.19 0.33 0.41 0.55 0.71 0.78 0.72 0.66 0.55 0.43 0.35 0.30 0.27 0.26 0.25 0.27 0.34 0.42 0.50 0.61 0.84 0.96 0.91
0.25 0.23 0.22 0.23 0.25 0.27 0.32 0.36 0.33 0.33 0.26 0.22 0.24 0.31 0.34 0.34 0.28 0.23 0.30 0.32 0.31 0.36 0.38 0.51 0.67 0.78 0.79 0.76 0.71 0.60 0.47 0.42 0.36 0.34 0.35 0.34 0.37 0.42 0.44 0.47 0.59 0.71 0.67
0.32 0.26 0.24 0.24 0.28 0.30 0.30 0.31 0.25 0.16 0.13 0.12 0.12 0.17 0.21 0.19 0.12 0.09 0.14 0.19 0.20 0.22 0.28 0.46 0.62 0.75 0.84 0.84 0.83 0.75 0.62 0.52 0.44 0.42 0.42 0.39 0.37 0.41 0.41 0.39 0.45 0.54 0.55
0.31 0.27 0.24 0.24 0.27 0.27 0.27 0.30 0.34 0.28 0.13 0.08 0.08 0.09 0.11 0.07 0.05 0.06 0.09 0.13 0.13 0.13 0.18 0.35 0.48 0.59 0.74 0.85 0.85 0.78 0.67 0.60 0.53 0.51 0.51 0.47 0.40 0.39 0.41 0.37 0.36 0.43 0.50
0.27 0.27 0.25 0.25 0.27 0.25 0.24 0.26 0.31 0.38 0.34 0.24 0.13 0.09 0.10 0.07 0.09 0.12 0.11 0.13 0.13 0.11 0.13 0.26 0.37 0.48 0.60 0.74 0.78 0.75 0.72 0.67 0.61 0.56 0.56 0.55 0.48 0.40 0.39 0.38 0.34 0.31 0.38
0.26 0.22 0.18 0.18 0.21 0.23 0.24 0.25 0.28 0.31 0.35 0.39 0.28 0.11 0.11 0.11 0.19 0.25 0.18 0.18 0.20 0.15 0.13 0.19 0.26 0.35 0.48 0.63 0.73 0.74 0.73 0.68 0.62 0.59 0.58 0.56 0.54 0.46 0.38 0.38 0.38 0.34 0.30
0.20 0.19 0.13 0.09 0.13 0.20 0.25 0.27 0.25 0.28 0.32 0.40 0.35 0.19 0.11 0.14 0.29 0.36 0.25 0.26 0.26 0.22 0.19 0.20 0.22 0.27 0.41 0.55 0.65 0.70 0.72 0.68 0.61 0.58 0.59 0.56 0.52 0.47 0.40 0.36 0.38 0.34 0.26
0.15 0.13 0.11 0.08 0.12 0.20 0.24 0.25 0.25 0.30 0.35 0.42 0.35 0.17 0.10 0.19 0.38 0.41 0.30 0.27 0.25 0.23 0.22 0.19 0.16 0.20 0.31 0.45 0.54 0.61 0.68 0.64 0.56 0.52 0.56 0.58 0.49 0.45 0.40 0.35 0.33 0.31 0.27
0.15 0.13 0.12 0.11 0.18 0.22 0.20 0.26 0.34 0.37 0.37 0.39 0.31 0.13 0.10 0.21 0.34 0.36 0.29 0.25 0.22 0.19 0.16 0.13 0.11 0.15 0.24 0.35 0.41 0.48 0.58 0.57 0.51 0.46 0.49 0.56 0.51 0.43 0.40 0.37 0.33 0.31 0.30
0.19 0.18 0.15 0.17 0.21 0.19 0.21 0.28 0.35 0.35 0.34 0.32 0.27 0.22 0.20 0.25 0.26 0.26 0.25 0.22 0.19 0.18 0.16 0.16 0.17 0.19 0.25 0.32 0.34 0.38 0.48 0.47 0.42 0.38 0.42 0.50 0.50 0.43 0.38 0.34 0.30 0.28 0.29
0.15 0.17 0.16 0.13 0.13 0.15 0.18 0.20 0.22 0.24 0.25 0.25 0.24 0.23 0.23 0.24 0.23 0.23 0.23 0.22 0.22 0.21 0.20 0.22 0.21 0.21 0.27 0.29 0.30 0.33 0.42 0.41 0.37 0.34 0.36 0.41 0.42 0.39 0.35 0.31 0.28 0.26 0.26
0.15 0.15 0.14 0.12 0.09 0.09 0.13 0.16 0.19 0.21 0.24 0.23 0.19 0.19 0.21 0.22 0.23 0.24 0.25 0.24 0.22 0.22 0.24 0.26 0.25 0.26 0.26 0.25 0.26 0.29 0.36 0.39 0.38 0.35 0.37 0.39 0.36 0.34 0.33 0.31 0.29 0.28 0.27
0.12 0.14 0.16 0.18 0.16 0.13 0.15 0.20 0.23 0.22 0.23 0.20 0.19 0.19 0.24 0.27 0.27 0.28 0.29 0.28 0.26 0.26 0.27 0.30 0.30 0.28 0.28 0.25 0.24 0.27 0.30 0.32 0.35 0.38 0.38 0.37 0.36 0.33 0.32 0.32 0.31 0.30 0.29

GEFSGL_prec_meanprecacc_048.txt.gz
Total_Precipitation_Accumulation
0.02 0.01 0.01 0.01 0.02 0.06 0.10 0.15 0.18 0.19 0.20 0.19 0.16 0.14 0.11 0.11 0.13 0.17 0.20 0.26 0.32 0.41 0.50 0.50 0.49 0.61 0.69 0.64 0.63 0.63 0.68 0.73 0.72 0.69 0.82 0.84 0.70 0.49 0.39 0.37 0.33 0.33 0.28
0.00 0.00 0.00 0.00 0.00 0.01 0.03 0.08 0.14 0.19 0.21 0.20 0.19 0.16 0.11 0.09 0.11 0.13 0.15 0.19 0.28 0.38 0.53 0.69 0.70 0.65 0.63 0.63 0.62 0.64 0.69 0.80 0.80 0.72 0.77 0.85 0.79 0.66 0.52 0.42 0.33 0.29 0.29
0.00 0.00 0.00 0.00 0.01 0.01 0.01 0.01 0.04 0.09 0.15 0.18 0.18 0.17 0.15 0.13 0.12 0.10 0.11 0.13 0.18 0.24 0.37 0.59 0.77 0.91 0.83 0.65 0.56 0.54 0.62 0.77 0.86 0.81 0.82 0.94 0.96 0.84 0.65 0.48 0.37 0.30 0.27
0.00 0.00 0.00 0.01 0.02 0.03 0.03 0.03 0.03 0.04 0.08 0.13 0.18 0.19 0.18 0.16 0.14 0.12 0.13 0.13 0.14 0.17 0.24 0.34 0.47 0.67 0.83 0.87 0.75 0.62 0.61 0.69 0.78 0.82 0.95 1.17 1.19 1.04 0.75 0.56 0.47 0.37 0.29
0.01 0.01 0.01 0.01 0.02 0.03 0.04 0.05 0.06 0.07 0.07 0.13 0.19 0.21 0.20 0.18 0.13 0.13 0.16 0.14 0.16 0.16 0.19 0.23 0.25 0.33 0.46 0.62 0.75 0.79 0.76 0.70 0.76 0.84 1.08 1.50 1.52 1.25 0.83 0.60 0.52 0.47 0.37
0.01 0.02 0.02 0.03 0.04 0.05 0.05 0.06 0.07 0.09 0.12 0.15 0.19 0.23 0.23 0.17 0.12 0.11 0.13 0.16 0.21 0.24 0.25 0.24 0.21 0.20 0.25 0.34 0.47 0.60 0.75 0.78 0.79 0.84 1.05 1.36 1.52 1.38 1.10 0.85 0.62 0.46 0.39
0.01 0.02 0.02 0.04 0.06 0.07 0.07 0.08 0.11 0.14 0.17 0.18 0.20 0.27 0.31 0.30 0.21 0.13 0.10 0.15 0.21 0.26 0.31 0.33 0.22 0.14 0.17 0.21 0.28 0.37 0.46 0.57 0.70 0.79 0.94 1.16 1.44 1.55 1.34 0.96 0.74 0.61 0.43
0.02 0.02 0.04 0.06 0.08 0.09 0.12 0.15 0.18 0.21 0.21 0.21 0.22 0.27 0.36 0.37 0.30 0.21 0.14 0.16 0.23 0.26 0.31 0.33 0.30 0.23 0.21 0.22 0.25 0.26 0.29 0.33 0.42 0.54 0.69 0.93 1.22 1.52 1.62 1.36 1.11 0.93 0.70
0.03 0.05 0.07 0.09 0.13 0.16 0.18 0.22 0.25 0.27 0.25 0.23 0.23 0.26 0.35 0.40 0.35 0.25 0.21 0.22 0.26 0.29 0.31 0.34 0.34 0.30 0.22 0.19 0.24 0.25 0.25 0.27 0.31 0.37 0.49 0.69 0.95 1.24 1.56 1.66 1.36 0.98 0.82
0.07 0.08 0.10 0.14 0.19 0.23 0.27 0.31 0.33 0.34 0.30 0.26 0.22 0.25 0.31 0.42 0.42 0.28 0.24 0.26 0.30 0.34 0.43 0.46 0.42 0.37 0.31 0.19 0.21 0.24 0.23 0.23 0.26 0.27 0.32 0.44 0.62 0.87 1.19 1.37 1.36 1.03 0.76
0.11 0.11 0.13 0.17 0.22 0.24 0.28 0.31 0.34 0.34 0.33 0.31 0.28 0.28 0.30 0.35 0.41 0.31 0.26 0.30 0.35 0.43 0.52 0.60 0.56 0.44 0.33 0.24 0.21 0.23 0.21 0.25 0.28 0.29 0.30 0.36 0.52 0.73 0.91 1.15 1.26 1.15 0.86
0.12 0.13 0.15 0.16 0.17 0.17 0.24 0.28 0.33 0.36 0.36 0.33 0.32 0.31 0.32 0.30 0.28 0.31 0.23 0.22 0.30 0.45 0.58 0.74 0.76 0.63 0.47 0.34 0.27 0.24 0.21 0.22 0.28 0.31 0.32 0.33 0.41 0.54 0.72 0.97 1.16 1.17 1.01
0.13 0.14 0.14 0.15 0.17 0.22 0.29 0.31 0.33 0.36 0.35 0.30 0.27 0.31 0.35 0.35 0.27 0.22 0.19 0.14 0.19 0.38 0.55 0.79 0.88 0.76 0.63 0.49 0.39 0.34 0.28 0.24 0.26 0.28 0.25 0.26 0.32 0.42 0.60 0.87 1.17 1.25 1.17
0.18 0.17 0.17 0.19 0.21 0.26 0.34 0.37 0.40 0.39 0.34 0.28 0.25 0.31 0.34 0.35 0.30 0.27 0.25 0.19 0.20 0.34 0.42 0.56 0.71 0.78 0.72 0.66 0.56 0.44 0.35 0.31 0.29 0.29 0.28 0.31 0.38 0.47 0.58 0.70 0.95 1.12 1.13
0.25 0.23 0.22 0.23 0.25 0.27 0.32 0.36 0.33 0.33 0.26 0.23 0.24 0.31 0.35 0.35 0.29 0.23 0.30 0.32 0.32 0.36 0.39 0.52 0.69 0.80 0.82 0.79 0.75 0.64 0.51 0.45 0.39 0.37 0.41 0.41 0.44 0.48 0.51 0.56 0.71 0.86 0.84
0.32 0.26 0.24 0.24 0.28 0.30 0.30 0.31 0.25 0.16 0.13 0.12 0.12 0.17 0.21 0.19 0.12 0.09 0.14 0.19 0.21 0.23 0.29 0.47 0.64 0.79 0.89 0.90 0.89 0.82 0.69 0.58 0.50 0.48 0.49 0.47 0.45 0.49 0.49 0.48 0.57 0.69 0.71
0.32 0.28 0.24 0.24 0.27 0.27 0.27 0.30 0.34 0.28 0.13 0.08 0.08 0.09 0.11 0.07 0.05 0.06 0.10 0.14 0.15 0.14 0.19 0.36 0.50 0.63 0.78 0.90 0.91 0.85 0.75 0.68 0.62 0.61 0.61 0.58 0.51 0.50 0.51 0.48 0.47 0.57 0.65
0.27 0.27 0.25 0.25 0.27 0.25 0.24 0.26 0.31 0.38 0.35 0.24 0.14 0.09 0.10 0.07 0.10 0.12 0.12 0.14 0.14 0.12 0.15 0.28 0.40 0.52 0.64 0.78 0.83 0.81 0.80 0.77 0.72 0.68 0.69 0.68 0.62 0.54 0.53 0.50 0.45 0.43 0.52
0.26 0.22 0.18 0.18 0.21 0.23 0.24 0.25 0.28 0.32 0.36 0.40 0.30 0.13 0.12 0.12 0.19 0.26 0.19 0.19 0.22 0.19 0.17 0.21 0.28 0.38 0.52 0.67 0.78 0.81 0.81 0.77 0.72 0.70 0.71 0.71 0.69 0.61 0.54 0.52 0.52 0.47 0.44
0.20 0.19 0.13 0.09 0.13 0.20 0.25 0.27 0.26 0.29 0.34 0.43 0.38 0.21 0.13 0.16 0.31 0.39 0.27 0.29 0.29 0.25 0.22 0.23 0.24 0.30 0.44 0.59 0.70 0.78 0.82 0.78 0.71 0.70 0.72 0.70 0.67 0.64 0.56 0.53 0.56 0.50 0.39
0.15 0.13 0.11 0.08 0.12 0.20 0.25 0.25 0.26 0.31 0.37 0.44 0.38 0.19 0.11 0.20 0.40 0.45 0.34 0.31 0.29 0.27 0.27 0.23 0.20 0.23 0.35 0.49 0.58 0.68 0.76 0.73 0.65 0.62 0.66 0.70 0.63 0.59 0.55 0.53 0.53 0.53 0.45
0.15 0.14 0.13 0.12 0.18 0.22 0.22 0.27 0.35 0.39 0.39 0.41 0.33 0.16 0.12 0.23 0.39 0.41 0.34 0.30 0.29 0.26 0.22 0.19 0.17 0.20 0.29 0.41 0.46 0.53 0.65 0.66 0.60 0.56 0.59 0.66 0.63 0.55 0.52 0.51 0.50 0.53 0.52
0.19 0.19 0.16 0.17 0.22 0.20 0.22 0.28 0.36 0.38 0.36 0.33 0.29 0.25 0.24 0.30 0.32 0.32 0.31 0.28 0.27 0.26 0.23 0.23 0.24 0.26 0.32 0.40 0.42 0.45 0.55 0.55 0.51 0.48 0.53 0.60 0.60 0.55 0.50 0.46 0.43 0.44 0.47
0.16 0.18 0.17 0.14 0.14 0.16 0.19 0.21 0.24 0.26 0.26 0.26 0.27 0.26 0.26 0.28 0.29 0.28 0.28 0.28 0.30 0.30 0.29 0.31 0.30 0.30 0.35 0.39 0.39 0.42 0.51 0.50 0.46 0.44 0.47 0.54 0.54 0.52 0.48 0.44 0.41 0.39 0.41
0.16 0.17 0.15 0.14 0.11 0.11 0.14 0.18 0.21 0.23 0.26 0.24 0.21 0.21 0.23 0.25 0.27 0.28 0.29 0.29 0.29 0.31 0.32 0.34 0.34 0.35 0.35 0.33 0.34 0.38 0.43 0.43 0.42 0.43 0.48 0.52 0.50 0.48 0.47 0.44 0.41 0.41 0.41
0.14 0.16 0.19 0.20 0.18 0.15 0.16 0.22 0.25 0.23 0.24 0.21 0.21 0.21 0.25 0.29 0.30 0.30 0.32 0.32 0.31 0.32 0.32 0.36 0.38 0.35 0.35 0.33 0.31 0.34 0.35 0.36 0.38 0.40 0.45 0.49 0.50 0.46 0.46 0.46 0.43 0.43 0.43

GEFSGL_prec_meanprecacc_054.txt.gz
Total_Precipitation_Accumulation
0.02 0.01 0.01 0.01 0.02 0.06 0.11 0.15 0.18 0.20 0.20 0.19 0.17 0.15 0.12 0.12 0.15 0.18 0.21 0.27 0.33 0.42 0.51 0.51 0.50 0.61 0.69 0.65 0.63 0.63 0.68 0.74 0.73 0.69 0.83 0.86 0.75 0.57 0.49 0.51 0.52 0.53 0.42
0.00 0.00 0.00 0.00 0.00 0.01 0.03 0.08 0.14 0.20 0.21 0.21 0.20 0.17 0.12 0.10 0.12 0.14 0.16 0.20 0.29 0.39 0.54 0.71 0.71 0.66 0.65 0.64 0.63 0.64 0.70 0.81 0.82 0.73 0.78 0.86 0.82 0.71 0.60 0.51 0.45 0.46 0.49
0.00 0.00 0.00 0.00 0.01 0.01 0.01 0.01 0.04 0.10 0.16 0.19 0.19 0.18 0.16 0.14 0.13 0.11 0.12 0.15 0.19 0.25 0.38 0.61 0.79 0.93 0.85 0.67 0.58 0.56 0.63 0.78 0.87 0.83 0.83 0.95 0.98 0.88 0.71 0.56 0.45 0.43 0.41
0.00 0.00 0.00 0.01 0.02 0.03 0.03 0.03 0.03 0.04 0.09 0.14 0.18 0.20 0.18 0.16 0.14 0.13 0.14 0.15 0.16 0.19 0.26 0.36 0.49 0.69 0.86 0.91 0.77 0.64 0.64 0.71 0.79 0.84 0.96 1.18 1.21 1.08 0.83 0.66 0.58 0.48 0.43
0.01 0.01 0.01 0.01 0.02 0.03 0.04 0.05 0.06 0.07 0.08 0.13 0.19 0.21 0.20 0.18 0.13 0.14 0.17 0.15 0.17 0.17 0.20 0.25 0.28 0.36 0.48 0.64 0.76 0.81 0.78 0.72 0.78 0.86 1.09 1.51 1.54 1.28 0.92 0.73 0.67 0.64 0.54
0.01 0.02 0.02 0.03 0.04 0.05 0.05 0.06 0.07 0.09 0.12 0.15 0.19 0.24 0.24 0.17 0.12 0.11 0.13 0.17 0.21 0.25 0.26 0.26 0.23 0.22 0.25 0.35 0.47 0.60 0.75 0.79 0.79 0.86 1.06 1.38 1.54 1.43 1.17 0.97 0.76 0.63 0.57
0.01 0.02 0.02 0.04 0.06 0.07 0.07 0.09 0.11 0.14 0.17 0.18 0.20 0.27 0.31 0.31 0.21 0.13 0.10 0.15 0.21 0.26 0.32 0.35 0.24 0.15 0.19 0.24 0.31 0.38 0.46 0.57 0.70 0.79 0.94 1.16 1.45 1.58 1.40 1.05 0.88 0.78 0.64
0.02 0.02 0.04 0.06 0.08 0.09 0.12 0.15 0.18 0.21 0.21 0.22 0.22 0.27 0.37 0.37 0.30 0.21 0.14 0.16 0.23 0.27 0.32 0.35 0.33 0.27 0.25 0.27 0.30 0.30 0.32 0.36 0.43 0.55 0.70 0.94 1.23 1.54 1.66 1.42 1.21 1.07 0.89
0.03 0.05 0.07 0.09 0.13 0.16 0.18 0.22 0.25 0.27 0.25 0.24 0.23 0.27 0.36 0.42 0.35 0.25 0.21 0.23 0.26 0.29 0.32 0.36 0.39 0.36 0.27 0.20 0.25 0.26 0.27 0.29 0.32 0.37 0.50 0.69 0.95 1.25 1.57 1.68 1.40 1.07 0.94
0.07 0.08 0.10 0.14 0.19 0.23 0.27 0.31 0.33 0.34 0.30 0.26 0.22 0.26 0.32 0.44 0.42 0.28 0.24 0.26 0.30 0.34 0.45 0.49 0.44 0.39 0.32 0.20 0.22 0.26 0.25 0.25 0.29 0.30 0.34 0.45 0.62 0.87 1.19 1.37 1.38 1.08 0.86
0.11 0.11 0.13 0.17 0.22 0.24 0.28 0.31 0.34 0.34 0.33 0.32 0.29 0.28 0.31 0.37 0.42 0.31 0.26 0.30 0.36 0.44 0.53 0.63 0.60 0.46 0.33 0.24 0.22 0.24 0.22 0.26 0.30 0.32 0.33 0.39 0.54 0.74 0.92 1.15 1.27 1.17 0.91
0.12 0.13 0.15 0.16 0.17 0.17 0.25 0.28 0.33 0.36 0.36 0.33 0.33 0.32 0.34 0.31 0.30 0.32 0.23 0.22 0.31 0.45 0.58 0.75 0.79 0.64 0.47 0.34 0.27 0.24 0.21 0.22 0.28 0.32 0.33 0.35 0.42 0.55 0.74 0.98 1.19 1.20 1.06
0.13 0.14 0.15 0.15 0.17 0.22 0.29 0.31 0.33 0.36 0.35 0.30 0.28 0.32 0.36 0.36 0.30 0.24 0.19 0.14 0.19 0.38 0.55 0.79 0.89 0.76 0.63 0.49 0.39 0.34 0.28 0.24 0.27 0.28 0.26 0.27 0.32 0.43 0.61 0.90 1.21 1.31 1.23
0.18 0.18 0.18 0.19 0.21 0.26 0.35 0.38 0.40 0.39 0.34 0.28 0.26 0.31 0.34 0.36 0.34 0.34 0.32 0.23 0.22 0.35 0.43 0.57 0.72 0.78 0.72 0.66 0.56 0.44 0.36 0.32 0.29 0.30 0.29 0.32 0.40 0.49 0.60 0.73 1.00 1.20 1.20
0.27 0.25 0.24 0.25 0.27 0.29 0.33 0.37 0.33 0.34 0.26 0.23 0.24 0.32 0.35 0.36 0.31 0.25 0.32 0.35 0.35 0.39 0.41 0.54 0.71 0.83 0.85 0.82 0.79 0.68 0.55 0.48 0.41 0.39 0.43 0.43 0.46 0.51 0.54 0.61 0.78 0.95 0.93
0.35 0.29 0.26 0.26 0.29 0.31 0.31 0.32 0.26 0.17 0.13 0.12 0.13 0.17 0.21 0.19 0.13 0.09 0.14 0.19 0.21 0.23 0.29 0.47 0.64 0.81 0.93 0.96 0.97 0.90 0.78 0.67 0.58 0.54 0.54 0.51 0.49 0.52 0.53 0.54 0.65 0.78 0.80
0.35 0.31 0.27 0.25 0.28 0.28 0.28 0.31 0.35 0.28 0.14 0.09 0.09 0.10 0.11 0.07 0.05 0.06 0.10 0.14 0.15 0.14 0.19 0.37 0.51 0.65 0.82 0.95 0.97 0.92 0.83 0.78 0.74 0.71 0.69 0.65 0.57 0.55 0.57 0.55 0.55 0.67 0.75
0.32 0.30 0.28 0.28 0.29 0.27 0.25 0.27 0.32 0.39 0.37 0.27 0.17 0.11 0.11 0.08 0.10 0.12 0.12 0.14 0.14 0.13 0.16 0.29 0.42 0.55 0.69 0.84 0.89 0.88 0.88 0.88 0.86 0.80 0.80 0.78 0.71 0.62 0.61 0.59 0.55 0.54 0.63
0.29 0.25 0.21 0.21 0.23 0.25 0.26 0.27 0.30 0.34 0.39 0.44 0.36 0.19 0.16 0.14 0.21 0.27 0.19 0.20 0.22 0.21 0.21 0.26 0.32 0.43 0.58 0.74 0.86 0.89 0.91 0.88 0.84 0.84 0.84 0.83 0.81 0.72 0.63 0.62 0.64 0.60 0.58
0.22 0.21 0.15 0.12 0.15 0.22 0.27 0.30 0.29 0.32 0.38 0.47 0.44 0.27 0.21 0.23 0.38 0.46 0.32 0.32 0.33 0.30 0.29 0.32 0.32 0.37 0.52 0.67 0.80 0.89 0.94 0.89 0.83 0.83 0.84 0.83 0.80 0.76 0.66 0.64 0.69 0.64 0.53
0.17 0.15 0.13 0.09 0.14 0.22 0.27 0.28 0.28 0.34 0.41 0.49 0.43 0.24 0.17 0.25 0.45 0.52 0.45 0.43 0.41 0.38 0.38 0.34 0.29 0.31 0.44 0.58 0.67 0.78 0.88 0.87 0.79 0.76 0.81 0.85 0.77 0.72 0.67 0.66 0.68 0.70 0.63
0.16 0.15 0.14 0.13 0.20 0.25 0.24 0.30 0.38 0.43 0.45 0.47 0.39 0.23 0.18 0.28 0.45 0.50 0.44 0.43 0.43 0.39 0.34 0.29 0.26 0.29 0.39 0.50 0.56 0.65 0.78 0.79 0.74 0.69 0.74 0.82 0.78 0.70 0.66 0.64 0.64 0.70 0.71
0.21 0.21 0.18 0.20 0.26 0.25 0.26 0.33 0.42 0.45 0.43 0.40 0.36 0.33 0.32 0.39 0.41 0.42 0.41 0.39 0.37 0.36 0.34 0.34 0.33 0.34 0.41 0.51 0.52 0.57 0.68 0.68 0.66 0.64 0.69 0.76 0.75 0.70 0.67 0.61 0.57 0.60 0.64
0.17 0.20 0.19 0.18 0.20 0.23 0.27 0.29 0.33 0.35 0.34 0.33 0.34 0.33 0.34 0.36 0.36 0.36 0.36 0.37 0.39 0.40 0.39 0.41 0.39 0.38 0.43 0.49 0.51 0.53 0.61 0.61 0.58 0.59 0.63 0.68 0.69 0.67 0.65 0.61 0.56 0.55 0.58
0.18 0.20 0.21 0.21 0.20 0.20 0.24 0.28 0.31 0.32 0.34 0.33 0.29 0.28 0.31 0.31 0.33 0.34 0.35 0.35 0.35 0.37 0.39 0.40 0.40 0.42 0.42 0.40 0.43 0.48 0.52 0.49 0.47 0.50 0.60 0.68 0.67 0.64 0.62 0.58 0.57 0.58 0.60
0.18 0.23 0.27 0.30 0.28 0.26 0.27 0.32 0.34 0.32 0.32 0.29 0.29 0.29 0.33 0.35 0.35 0.35 0.36 0.36 0.34 0.35 0.35 0.40 0.42 0.39 0.39 0.39 0.37 0.40 0.39 0.38 0.40 0.42 0.49 0.59 0.65 0.62 0.61 0.60 0.57 0.61 0.62

GEFSGL_prec_meanprecacc_060.txt.gz
Total_Precipitation_Accumulation
0.02 0.01 0.01 0.01 0.02 0.06 0.11 0.15 0.18 0.20 0.20 0.20 0.17 0.15 0.12 0.12 0.15 0.18 0.21 0.27 0.33 0.42 0.51 0.51 0.50 0.62 0.69 0.65 0.63 0.64 0.68 0.74 0.73 0.69 0.83 0.87 0.76 0.57 0.49 0.51 0.52 0.53 0.44
0.00 0.00 0.00 0.00 0.00 0.01 0.03 0.08 0.14 0.20 0.21 0.21 0.20 0.17 0.12 0.10 0.12 0.14 0.16 0.21 0.29 0.39 0.55 0.71 0.71 0.66 0.65 0.64 0.63 0.64 0.70 0.81 0.82 0.73 0.78 0.86 0.82 0.71 0.60 0.52 0.45 0.46 0.49
0.00 0.00 0.00 0.00 0.01 0.01 0.01 0.01 0.04 0.10 0.16 0.19 0.19 0.18 0.16 0.14 0.13 0.11 0.12 0.15 0.19 0.25 0.38 0.61 0.80 0.93 0.85 0.67 0.58 0.56 0.64 0.78 0.87 0.83 0.83 0.95 0.98 0.88 0.72 0.56 0.46 0.43 0.42
0.00 0.00 0.00 0.01 0.02 0.03 0.03 0.03 0.03 0.04 0.09 0.14 0.18 0.20 0.18 0.16 0.14 0.13 0.14 0.15 0.16 0.19 0.26 0.36 0.49 0.69 0.86 0.91 0.78 0.65 0.64 0.71 0.79 0.84 0.96 1.18 1.21 1.09 0.83 0.66 0.58 0.49 0.44
0.01 0.01 0.01 0.01 0.02 0.03 0.04 0.05 0.06 0.07 0.08 0.13 0.19 0.21 0.20 0.18 0.13 0.14 0.17 0.15 0.17 0.18 0.20 0.25 0.28 0.36 0.49 0.64 0.76 0.81 0.78 0.73 0.78 0.86 1.09 1.51 1.54 1.29 0.92 0.73 0.67 0.64 0.54
0.01 0.02 0.02 0.03 0.04 0.05 0.05 0.06 0.07 0.09 0.12 0.15 0.19 0.24 0.24 0.17 0.12 0.11 0.13 0.17 0.21 0.25 0.26 0.26 0.23 0.22 0.25 0.35 0.47 0.61 0.75 0.79 0.79 0.86 1.06 1.38 1.54 1.43 1.17 0.97 0.76 0.63 0.58
0.01 0.02 0.02 0.04 0.06 0.07 0.07 0.09 0.11 0.14 0.17 0.18 0.20 0.27 0.31 0.31 0.21 0.13 0.10 0.15 0.21 0.26 0.32 0.35 0.24 0.15 0.20 0.25 0.31 0.38 0.47 0.57 0.70 0.79 0.94 1.16 1.45 1.58 1.40 1.05 0.88 0.79 0.64
0.02 0.02 0.04 0.06 0.08 0.10 0.12 0.15 0.18 0.21 0.21 0.22 0.22 0.27 0.37 0.37 0.30 0.21 0.14 0.16 0.23 0.27 0.32 0.35 0.33 0.27 0.26 0.27 0.30 0.30 0.32 0.36 0.43 0.55 0.70 0.94 1.23 1.54 1.66 1.42 1.21 1.07 0.89
0.03 0.05 0.07 0.10 0.13 0.16 0.19 0.22 0.26 0.27 0.25 0.24 0.23 0.27 0.36 0.42 0.35 0.25 0.21 0.23 0.26 0.29 0.32 0.36 0.39 0.36 0.27 0.20 0.25 0.26 0.27 0.30 0.32 0.38 0.50 0.69 0.95 1.25 1.57 1.68 1.40 1.07 0.94
0.08 0.10 0.11 0.15 0.21 0.24 0.27 0.32 0.33 0.34 0.30 0.26 0.22 0.26 0.32 0.44 0.42 0.28 0.24 0.26 0.30 0.34 0.45 0.49 0.44 0.39 0.32 0.20 0.22 0.26 0.25 0.25 0.29 0.30 0.34 0.45 0.62 0.87 1.19 1.37 1.38 1.08 0.86
0.13 0.14 0.16 0.21 0.25 0.27 0.30 0.32 0.35 0.34 0.33 0.32 0.29 0.28 0.31 0.37 0.42 0.31 0.26 0.30 0.36 0.44 0.53 0.63 0.60 0.46 0.33 0.24 0.22 0.25 0.22 0.26 0.30 0.32 0.33 0.39 0.54 0.74 0.92 1.15 1.27 1.17 0.91
0.17 0.18 0.19 0.21 0.21 0.20 0.27 0.30 0.34 0.37 0.37 0.34 0.33 0.32 0.34 0.31 0.30 0.33 0.23 0.23 0.31 0.46 0.58 0.75 0.79 0.64 0.47 0.34 0.27 0.24 0.21 0.22 0.28 0.32 0.33 0.35 0.42 0.55 0.74 0.99 1.19 1.20 1.06
0.20 0.22 0.21 0.20 0.21 0.25 0.31 0.33 0.35 0.38 0.36 0.31 0.28 0.32 0.36 0.36 0.31 0.24 0.20 0.15 0.20 0.39 0.55 0.80 0.89 0.76 0.64 0.50 0.39 0.34 0.28 0.24 0.27 0.28 0.26 0.27 0.32 0.43 0.61 0.91 1.21 1.31 1.23
0.24 0.23 0.22 0.24 0.25 0.31 0.39 0.41 0.43 0.41 0.36 0.30 0.27 0.33 0.36 0.38 0.36 0.35 0.33 0.24 0.23 0.36 0.43 0.57 0.72 0.78 0.72 0.67 0.56 0.44 0.36 0.32 0.30 0.30 0.29 0.32 0.40 0.49 0.60 0.73 1.00 1.20 1.21
0.30 0.27 0.26 0.27 0.30 0.33 0.37 0.40 0.36 0.36 0.29 0.27 0.28 0.36 0.39 0.38 0.33 0.27 0.33 0.36 0.36 0.40 0.41 0.55 0.71 0.83 0.85 0.82 0.79 0.68 0.56 0.48 0.41 0.39 0.43 0.43 0.46 0.51 0.54 0.61 0.78 0.95 0.94
0.37 0.31 0.29 0.29 0.33 0.35 0.35 0.36 0.29 0.21 0.18 0.18 0.19 0.23 0.27 0.24 0.17 0.12 0.16 0.21 0.22 0.24 0.29 0.47 0.65 0.81 0.93 0.96 0.97 0.91 0.79 0.68 0.58 0.54 0.55 0.51 0.49 0.52 0.53 0.54 0.65 0.78 0.81
0.37 0.33 0.29 0.28 0.31 0.31 0.31 0.35 0.38 0.32 0.17 0.13 0.15 0.16 0.19 0.15 0.12 0.12 0.14 0.17 0.16 0.15 0.19 0.37 0.51 0.65 0.82 0.95 0.97 0.93 0.84 0.79 0.75 0.72 0.70 0.65 0.58 0.55 0.57 0.55 0.56 0.67 0.76
0.32 0.31 0.29 0.30 0.31 0.29 0.27 0.29 0.35 0.43 0.40 0.31 0.22 0.17 0.17 0.14 0.16 0.19 0.18 0.19 0.17 0.14 0.16 0.30 0.42 0.55 0.69 0.85 0.90 0.88 0.89 0.89 0.87 0.81 0.81 0.79 0.72 0.63 0.61 0.60 0.56 0.55 0.64
0.29 0.25 0.21 0.21 0.24 0.26 0.27 0.29 0.32 0.37 0.43 0.49 0.41 0.24 0.22 0.19 0.26 0.33 0.25 0.23 0.25 0.23 0.22 0.27 0.33 0.44 0.59 0.75 0.87 0.90 0.92 0.89 0.85 0.85 0.85 0.84 0.82 0.74 0.64 0.63 0.64 0.61 0.59
0.22 0.21 0.15 0.12 0.15 0.22 0.28 0.31 0.31 0.35 0.42 0.51 0.48 0.32 0.27 0.29 0.43 0.51 0.37 0.36 0.37 0.33 0.31 0.34 0.35 0.40 0.55 0.70 0.82 0.91 0.95 0.91 0.84 0.85 0.86 0.85 0.82 0.77 0.68 0.65 0.70 0.65 0.54
0.17 0.15 0.13 0.09 0.14 0.23 0.28 0.29 0.30 0.37 0.45 0.54 0.49 0.31 0.25 0.32 0.53 0.60 0.52 0.49 0.47 0.43 0.41 0.38 0.33 0.36 0.48 0.62 0.71 0.81 0.90 0.89 0.81 0.77 0.82 0.87 0.80 0.74 0.69 0.68 0.70 0.72 0.65
0.16 0.15 0.14 0.14 0.21 0.26 0.25 0.31 0.40 0.47 0.52 0.56 0.50 0.34 0.30 0.39 0.55 0.60 0.53 0.52 0.50 0.45 0.39 0.34 0.30 0.32 0.42 0.53 0.59 0.68 0.81 0.83 0.78 0.73 0.77 0.85 0.81 0.73 0.69 0.67 0.67 0.72 0.74
0.21 0.21 0.18 0.20 0.27 0.26 0.28 0.36 0.47 0.52 0.53 0.54 0.51 0.47 0.47 0.52 0.55 0.55 0.51 0.46 0.43 0.42 0.39 0.38 0.37 0.37 0.43 0.52 0.54 0.59 0.70 0.71 0.69 0.69 0.74 0.80 0.79 0.74 0.70 0.64 0.61 0.64 0.68
0.17 0.20 0.20 0.19 0.21 0.25 0.30 0.34 0.38 0.42 0.43 0.44 0.45 0.45 0.45 0.46 0.47 0.45 0.43 0.42 0.43 0.43 0.43 0.45 0.43 0.41 0.46 0.51 0.53 0.55 0.63 0.62 0.60 0.62 0.67 0.73 0.73 0.71 0.69 0.65 0.60 0.60 0.64
0.18 0.21 0.21 0.22 0.21 0.23 0.27 0.33 0.38 0.41 0.44 0.43 0.41 0.41 0.43 0.41 0.42 0.43 0.43 0.42 0.41 0.42 0.42 0.43 0.43 0.45 0.44 0.42 0.45 0.50 0.54 0.51 0.49 0.52 0.63 0.72 0.71 0.68 0.66 0.62 0.60 0.63 0.67
0.19 0.23 0.28 0.31 0.30 0.28 0.30 0.37 0.42 0.41 0.42 0.41 0.42 0.43 0.47 0.47 0.44 0.43 0.43 0.42 0.40 0.39 0.37 0.41 0.43 0.41 0.40 0.40 0.39 0.41 0.40 0.39 0.41 0.44 0.51 0.61 0.67 0.65 0.64 0.64 0.61 0.65 0.68

GEFSGL_prec_meanprecacc_066.txt.gz
Total_Precipitation_Accumulation
0.02 0.01 0.01 0.01 0.02 0.06 0.11 0.15 0.18 0.20 0.20 0.20 0.17 0.15 0.12 0.12 0.15 0.18 0.21 0.27 0.33 0.42 0.51 0.51 0.50 0.62 0.69 0.65 0.63 0.64 0.68 0.74 0.73 0.69 0.83 0.87 0.76 0.57 0.49 0.51 0.52 0.53 0.44
0.00 0.00 0.00 0.00 0.00 0.01 0.03 0.08 0.14 0.20 0.21 0.21 0.20 0.17 0.12 0.10 0.12 0.14 0.16 0.21 0.29 0.39 0.55 0.71 0.71 0.66 0.65 0.64 0.63 0.64 0.70 0.81 0.82 0.73 0.78 0.86 0.82 0.71 0.60 0.52 0.45 0.46 0.49
0.00 0.00 0.00 0.00 0.01 0.01 0.01 0.01 0.04 0.10 0.16 0.19 0.19 0.18 0.16 0.14 0.13 0.11 0.12 0.15 0.19 0.25 0.38 0.61 0.80 0.93 0.85 0.67 0.58 0.56 0.64 0.78 0.87 0.83 0.83 0.95 0.98 0.88 0.72 0.56 0.46 0.43 0.42
0.00 0.00 0.00 0.01 0.02 0.03 0.03 0.03 0.03 0.04 0.09 0.14 0.18 0.20 0.18 0.16 0.14 0.13 0.14 0.15 0.16 0.19 0.26 0.36 0.49 0.69 0.86 0.91 0.78 0.65 0.64 0.71 0.79 0.84 0.96 1.18 1.21 1.09 0.83 0.66 0.58 0.49 0.44
0.01 0.01 0.01 0.01 0.02 0.03 0.04 0.05 0.06 0.07 0.08 0.13 0.19 0.21 0.20 0.18 0.13 0.14 0.17 0.15 0.17 0.18 0.20 0.25 0.28 0.36 0.49 0.64 0.76 0.81 0.78 0.73 0.78 0.86 1.09 1.51 1.54 1.29 0.92 0.73 0.67 0.64 0.54
0.01 0.02 0.02 0.03 0.04 0.05 0.05 0.06 0.07 0.09 0.12 0.15 0.19 0.24 0.24 0.17 0.12 0.11 0.13 0.17 0.21 0.25 0.26 0.26 0.23 0.22 0.25 0.35 0.47 0.61 0.75 0.79 0.80 0.86 1.06 1.38 1.54 1.43 1.17 0.97 0.76 0.63 0.58
0.01 0.02 0.03 0.05 0.06 0.07 0.07 0.09 0.11 0.14 0.17 0.18 0.20 0.27 0.31 0.31 0.21 0.13 0.10 0.15 0.21 0.26 0.32 0.35 0.24 0.15 0.20 0.25 0.31 0.38 0.47 0.57 0.70 0.79 0.94 1.16 1.45 1.58 1.40 1.05 0.88 0.79 0.64
0.02 0.03 0.04 0.06 0.08 0.10 0.12 0.15 0.19 0.22 0.22 0.22 0.22 0.28 0.37 0.37 0.30 0.21 0.14 0.17 0.23 0.27 0.32 0.35 0.33 0.27 0.26 0.27 0.30 0.30 0.32 0.36 0.43 0.55 0.70 0.94 1.23 1.54 1.66 1.42 1.21 1.07 0.89
0.04 0.06 0.08 0.11 0.14 0.17 0.20 0.24 0.27 0.28 0.26 0.25 0.24 0.28 0.36 0.42 0.36 0.25 0.21 0.23 0.26 0.29 0.32 0.36 0.39 0.36 0.27 0.20 0.25 0.26 0.27 0.30 0.32 0.38 0.50 0.69 0.95 1.25 1.57 1.68 1.40 1.07 0.94
0.10 0.12 0.14 0.19 0.25 0.28 0.32 0.36 0.37 0.37 0.32 0.28 0.24 0.27 0.33 0.44 0.43 0.29 0.25 0.27 0.31 0.35 0.45 0.49 0.44 0.39 0.32 0.20 0.22 0.26 0.25 0.25 0.29 0.30 0.34 0.45 0.62 0.87 1.19 1.37 1.38 1.08 0.86
0.17 0.19 0.21 0.27 0.33 0.34 0.37 0.39 0.41 0.40 0.37 0.35 0.31 0.30 0.33 0.38 0.44 0.33 0.29 0.32 0.37 0.45 0.54 0.63 0.60 0.46 0.33 0.24 0.22 0.25 0.22 0.26 0.30 0.32 0.33 0.39 0.54 0.74 0.92 1.15 1.27 1.17 0.91
0.20 0.22 0.25 0.28 0.29 0.28 0.35 0.38 0.41 0.43 0.40 0.37 0.36 0.34 0.36 0.33 0.32 0.35 0.25 0.24 0.33 0.46 0.59 0.76 0.80 0.64 0.48 0.34 0.27 0.24 0.21 0.22 0.28 0.32 0.33 0.35 0.42 0.55 0.74 0.99 1.19 1.20 1.06
0.23 0.25 0.26 0.25 0.26 0.30 0.36 0.37 0.39 0.41 0.39 0.33 0.30 0.34 0.38 0.38 0.33 0.27 0.22 0.17 0.22 0.40 0.56 0.80 0.90 0.77 0.64 0.50 0.40 0.34 0.28 0.24 0.27 0.28 0.26 0.27 0.32 0.43 0.61 0.91 1.21 1.31 1.23
0.25 0.25 0.24 0.26 0.27 0.33 0.40 0.42 0.44 0.42 0.37 0.31 0.28 0.34 0.37 0.39 0.37 0.37 0.35 0.26 0.25 0.37 0.44 0.58 0.73 0.79 0.73 0.67 0.56 0.45 0.36 0.32 0.30 0.30 0.29 0.32 0.40 0.49 0.60 0.73 1.00 1.20 1.21
0.31 0.29 0.27 0.28 0.31 0.33 0.37 0.40 0.37 0.36 0.30 0.28 0.29 0.37 0.40 0.40 0.34 0.30 0.36 0.38 0.38 0.43 0.44 0.56 0.73 0.85 0.87 0.83 0.80 0.68 0.56 0.49 0.42 0.39 0.43 0.43 0.46 0.51 0.54 0.61 0.78 0.95 0.94
0.37 0.31 0.29 0.29 0.33 0.35 0.35 0.36 0.30 0.21 0.19 0.18 0.19 0.24 0.28 0.25 0.18 0.14 0.19 0.24 0.25 0.28 0.34 0.50 0.67 0.83 0.95 0.98 0.99 0.93 0.80 0.68 0.58 0.55 0.55 0.51 0.49 0.52 0.53 0.54 0.65 0.78 0.81
0.37 0.33 0.29 0.28 0.31 0.31 0.31 0.35 0.38 0.32 0.17 0.13 0.15 0.16 0.19 0.15 0.13 0.14 0.16 0.20 0.19 0.18 0.22 0.39 0.54 0.68 0.85 0.98 1.00 0.95 0.86 0.80 0.76 0.72 0.70 0.65 0.58 0.55 0.57 0.55 0.56 0.67 0.76
0.32 0.31 0.29 0.30 0.31 0.29 0.27 0.29 0.35 0.43 0.40 0.31 0.22 0.17 0.18 0.15 0.18 0.21 0.20 0.21 0.19 0.16 0.19 0.33 0.45 0.58 0.72 0.88 0.93 0.90 0.90 0.90 0.88 0.81 0.81 0.79 0.72 0.63 0.61 0.60 0.56 0.55 0.64
0.29 0.25 0.21 0.21 0.24 0.26 0.27 0.29 0.32 0.37 0.43 0.49 0.41 0.25 0.22 0.20 0.28 0.35 0.27 0.26 0.28 0.26 0.26 0.31 0.38 0.48 0.63 0.78 0.89 0.93 0.94 0.90 0.86 0.86 0.86 0.84 0.83 0.74 0.65 0.63 0.64 0.61 0.59
0.22 0.21 0.15 0.12 0.15 0.22 0.28 0.31 0.31 0.35 0.42 0.51 0.48 0.32 0.28 0.30 0.45 0.55 0.41 0.41 0.42 0.38 0.38 0.41 0.42 0.46 0.60 0.74 0.85 0.93 0.97 0.92 0.85 0.85 0.86 0.85 0.83 0.78 0.68 0.66 0.70 0.66 0.55
0.17 0.15 0.13 0.09 0.14 0.23 0.28 0.29 0.30 0.37 0.45 0.54 0.50 0.33 0.28 0.36 0.59 0.69 0.62 0.60 0.58 0.53 0.51 0.47 0.41 0.43 0.54 0.67 0.75 0.84 0.93 0.91 0.82 0.79 0.83 0.88 0.81 0.75 0.70 0.69 0.70 0.73 0.66
0.16 0.15 0.14 0.14 0.21 0.26 0.25 0.31 0.41 0.48 0.52 0.57 0.52 0.39 0.37 0.48 0.67 0.73 0.67 0.65 0.63 0.59 0.52 0.47 0.41 0.42 0.50 0.59 0.64 0.72 0.84 0.85 0.79 0.75 0.79 0.86 0.83 0.75 0.71 0.69 0.69 0.74 0.75
0.21 0.21 0.18 0.20 0.27 0.26 0.28 0.36 0.48 0.53 0.54 0.56 0.55 0.54 0.55 0.63 0.68 0.71 0.67 0.62 0.58 0.57 0.55 0.53 0.50 0.48 0.52 0.59 0.60 0.63 0.74 0.74 0.71 0.71 0.76 0.82 0.81 0.76 0.73 0.68 0.65 0.68 0.71
0.17 0.20 0.20 0.19 0.21 0.25 0.30 0.34 0.39 0.44 0.46 0.48 0.50 0.52 0.54 0.57 0.61 0.61 0.59 0.58 0.58 0.57 0.57 0.59 0.56 0.53 0.56 0.59 0.59 0.59 0.66 0.65 0.61 0.63 0.69 0.75 0.76 0.74 0.72 0.68 0.64 0.64 0.69
0.18 0.21 0.21 0.22 0.21 0.23 0.28 0.33 0.39 0.43 0.47 0.47 0.47 0.49 0.52 0.52 0.55 0.59 0.59 0.58 0.56 0.55 0.54 0.55 0.54 0.56 0.55 0.51 0.52 0.54 0.57 0.53 0.50 0.53 0.64 0.73 0.73 0.70 0.68 0.65 0.63 0.66 0.71
0.19 0.23 0.28 0.31 0.30 0.28 0.31 0.38 0.43 0.43 0.45 0.44 0.47 0.50 0.55 0.57 0.56 0.58 0.59 0.57 0.55 0.55 0.52 0.52 0.52 0.48 0.47 0.46 0.44 0.45 0.43 0.41 0.42 0.46 0.53 0.62 0.68 0.67 0.66 0.66 0.65 0.69 0.71

GEFSGL_prec_meanprecacc_072.txt.gz
Total_Precipitation_Accumulation
0.02 0.01 0.01 0.01 0.02 0.06 0.11 0.15 0.18 0.20 0.20 0.20 0.17 0.15 0.12 0.12 0.15 0.18 0.21 0.27 0.33 0.42 0.51 0.51 0.50 0.62 0.70 0.65 0.63 0.64 0.68 0.74 0.73 0.70 0.83 0.87 0.76 0.57 0.49 0.51 0.52 0.53 0.44
0.01 0.00 0.00 0.00 0.00 0.01 0.03 0.08 0.14 0.20 0.21 0.21 0.20 0.17 0.12 0.10 0.12 0.14 0.16 0.21 0.29 0.39 0.55 0.71 0.72 0.67 0.65 0.64 0.63 0.64 0.70 0.81 0.82 0.73 0.78 0.86 0.82 0.72 0.60 0.52 0.45 0.46 0.49
0.00 0.00 0.00 0.00 0.01 0.01 0.01 0.02 0.04 0.10 0.16 0.19 0.19 0.18 0.16 0.14 0.13 0.11 0.12 0.15 0.19 0.25 0.38 0.61 0.80 0.93 0.85 0.67 0.58 0.56 0.64 0.78 0.87 0.83 0.83 0.95 0.98 0.88 0.72 0.56 0.46 0.43 0.42
0.00 0.00 0.01 0.02 0.03 0.03 0.03 0.03 0.03 0.04 0.09 0.14 0.18 0.20 0.18 0.16 0.14 0.13 0.14 0.15 0.16 0.19 0.26 0.36 0.49 0.69 0.86 0.91 0.78 0.65 0.64 0.71 0.80 0.84 0.96 1.18 1.21 1.09 0.83 0.66 0.58 0.49 0.44
0.01 0.01 0.02 0.02 0.02 0.03 0.05 0.06 0.06 0.07 0.08 0.13 0.19 0.21 0.20 0.18 0.13 0.14 0.17 0.15 0.17 0.18 0.20 0.25 0.28 0.36 0.49 0.65 0.76 0.81 0.78 0.73 0.78 0.86 1.09 1.51 1.54 1.29 0.92 0.73 0.67 0.64 0.54
0.02 0.02 0.02 0.03 0.04 0.05 0.05 0.06 0.07 0.09 0.12 0.15 0.19 0.24 0.24 0.17 0.12 0.11 0.13 0.17 0.21 0.25 0.26 0.26 0.23 0.22 0.25 0.35 0.47 0.61 0.75 0.79 0.80 0.86 1.06 1.38 1.54 1.43 1.18 0.97 0.76 0.63 0.58
0.02 0.02 0.03 0.05 0.06 0.07 0.08 0.09 0.11 0.14 0.17 0.18 0.20 0.27 0.31 0.31 0.21 0.13 0.10 0.15 0.21 0.26 0.32 0.35 0.25 0.15 0.20 0.25 0.31 0.38 0.47 0.57 0.70 0.80 0.94 1.16 1.45 1.58 1.41 1.06 0.89 0.80 0.65
0.04 0.04 0.06 0.08 0.09 0.11 0.13 0.16 0.19 0.22 0.22 0.22 0.23 0.28 0.37 0.38 0.31 0.21 0.15 0.17 0.23 0.27 0.32 0.36 0.34 0.28 0.26 0.28 0.31 0.31 0.32 0.36 0.43 0.55 0.70 0.94 1.23 1.55 1.68 1.44 1.23 1.09 0.90
0.06 0.08 0.10 0.13 0.16 0.18 0.21 0.25 0.28 0.29 0.27 0.26 0.25 0.29 0.37 0.43 0.37 0.26 0.23 0.24 0.27 0.29 0.32 0.36 0.39 0.37 0.27 0.21 0.26 0.27 0.28 0.30 0.32 0.38 0.50 0.69 0.95 1.25 1.57 1.69 1.41 1.08 0.95
0.12 0.14 0.17 0.21 0.27 0.30 0.33 0.38 0.39 0.39 0.34 0.30 0.25 0.29 0.34 0.45 0.45 0.31 0.27 0.28 0.31 0.35 0.46 0.50 0.45 0.39 0.32 0.21 0.23 0.27 0.26 0.26 0.30 0.31 0.34 0.45 0.62 0.87 1.19 1.37 1.38 1.09 0.87
0.18 0.20 0.23 0.29 0.35 0.36 0.39 0.41 0.43 0.42 0.39 0.37 0.33 0.32 0.35 0.40 0.46 0.36 0.32 0.33 0.38 0.46 0.55 0.65 0.62 0.47 0.34 0.25 0.23 0.25 0.23 0.27 0.33 0.35 0.36 0.41 0.55 0.75 0.93 1.16 1.28 1.18 0.93
0.21 0.23 0.26 0.29 0.30 0.30 0.37 0.40 0.43 0.45 0.42 0.39 0.37 0.35 0.38 0.36 0.34 0.38 0.29 0.27 0.34 0.47 0.59 0.77 0.81 0.66 0.49 0.36 0.28 0.24 0.22 0.22 0.29 0.33 0.35 0.36 0.43 0.56 0.75 1.00 1.21 1.22 1.08
0.23 0.26 0.26 0.26 0.27 0.31 0.36 0.38 0.39 0.41 0.39 0.34 0.31 0.35 0.39 0.40 0.35 0.28 0.24 0.18 0.24 0.41 0.56 0.80 0.91 0.78 0.65 0.51 0.40 0.35 0.29 0.25 0.28 0.29 0.28 0.28 0.33 0.44 0.63 0.93 1.23 1.34 1.25
0.26 0.26 0.25 0.26 0.28 0.33 0.41 0.43 0.45 0.43 0.37 0.31 0.29 0.34 0.37 0.39 0.37 0.37 0.35 0.26 0.25 0.37 0.45 0.59 0.74 0.80 0.74 0.68 0.57 0.46 0.37 0.33 0.31 0.32 0.31 0.34 0.42 0.52 0.63 0.76 1.03 1.23 1.24
0.31 0.29 0.27 0.28 0.31 0.33 0.37 0.40 0.37 0.36 0.30 0.28 0.29 0.37 0.40 0.40 0.34 0.30 0.36 0.38 0.38 0.43 0.45 0.58 0.74 0.86 0.88 0.85 0.82 0.71 0.59 0.52 0.44 0.42 0.46 0.46 0.50 0.56 0.58 0.66 0.83 0.99 0.97
0.37 0.31 0.29 0.29 0.33 0.35 0.35 0.36 0.30 0.21 0.19 0.18 0.19 0.24 0.28 0.25 0.18 0.14 0.19 0.24 0.26 0.29 0.35 0.52 0.69 0.86 0.98 1.02 1.04 0.98 0.87 0.75 0.65 0.61 0.61 0.57 0.55 0.59 0.59 0.60 0.70 0.81 0.83
0.37 0.33 0.29 0.28 0.31 0.31 0.31 0.35 0.38 0.32 0.17 0.13 0.15 0.16 0.19 0.15 0.13 0.14 0.16 0.20 0.20 0.18 0.23 0.40 0.55 0.71 0.88 1.02 1.05 1.01 0.93 0.89 0.87 0.84 0.81 0.75 0.66 0.63 0.64 0.61 0.61 0.71 0.79
0.32 0.31 0.29 0.30 0.31 0.29 0.27 0.29 0.35 0.43 0.40 0.31 0.22 0.17 0.18 0.15 0.18 0.21 0.20 0.21 0.19 0.17 0.20 0.35 0.48 0.61 0.76 0.93 0.98 0.98 0.99 1.00 0.99 0.92 0.92 0.89 0.82 0.73 0.70 0.67 0.62 0.61 0.69
0.29 0.25 0.21 0.21 0.24 0.26 0.27 0.29 0.32 0.37 0.43 0.49 0.41 0.25 0.22 0.20 0.28 0.35 0.28 0.27 0.30 0.28 0.29 0.34 0.42 0.53 0.69 0.86 0.98 1.02 1.04 1.01 0.97 0.96 0.95 0.93 0.92 0.83 0.72 0.70 0.71 0.67 0.64
0.22 0.21 0.15 0.12 0.15 0.22 0.28 0.31 0.31 0.35 0.42 0.52 0.49 0.33 0.28 0.31 0.46 0.56 0.43 0.44 0.45 0.43 0.43 0.47 0.49 0.55 0.71 0.87 0.98 1.06 1.10 1.05 0.98 0.97 0.96 0.95 0.92 0.87 0.76 0.73 0.77 0.73 0.62
0.17 0.15 0.13 0.09 0.14 0.23 0.29 0.29 0.31 0.38 0.46 0.56 0.51 0.34 0.28 0.37 0.61 0.72 0.66 0.64 0.63 0.60 0.59 0.55 0.50 0.53 0.66 0.81 0.90 1.00 1.07 1.04 0.95 0.91 0.95 0.98 0.89 0.83 0.76 0.76 0.78 0.80 0.73
0.16 0.15 0.14 0.14 0.21 0.26 0.25 0.32 0.41 0.49 0.54 0.59 0.53 0.40 0.38 0.50 0.70 0.76 0.71 0.71 0.71 0.68 0.63 0.59 0.54 0.55 0.65 0.77 0.82 0.90 1.01 1.01 0.95 0.89 0.91 0.98 0.93 0.84 0.79 0.76 0.76 0.81 0.83
0.21 0.21 0.18 0.20 0.27 0.26 0.28 0.37 0.49 0.55 0.56 0.58 0.57 0.56 0.58 0.66 0.72 0.75 0.74 0.70 0.67 0.69 0.70 0.70 0.69 0.68 0.72 0.81 0.82 0.86 0.96 0.94 0.90 0.88 0.90 0.95 0.93 0.87 0.83 0.77 0.73 0.76 0.79
0.18 0.20 0.20 0.19 0.21 0.25 0.31 0.35 0.41 0.46 0.48 0.50 0.53 0.54 0.57 0.60 0.65 0.66 0.66 0.66 0.67 0.70 0.72 0.77 0.77 0.76 0.77 0.79 0.79 0.77 0.83 0.80 0.75 0.76 0.80 0.86 0.87 0.84 0.81 0.77 0.72 0.71 0.76
0.18 0.21 0.21 0.22 0.21 0.24 0.29 0.34 0.40 0.44 0.49 0.49 0.49 0.52 0.54 0.54 0.58 0.62 0.66 0.68 0.67 0.69 0.68 0.68 0.70 0.73 0.70 0.64 0.65 0.66 0.68 0.63 0.59 0.60 0.71 0.80 0.80 0.78 0.75 0.72 0.70 0.72 0.78
0.19 0.23 0.28 0.31 0.31 0.29 0.32 0.39 0.44 0.44 0.46 0.46 0.49 0.52 0.57 0.59 0.59 0.63 0.64 0.64 0.63 0.64 0.62 0.63 0.65 0.60 0.58 0.55 0.51 0.52 0.50 0.47 0.47 0.50 0.56 0.65 0.72 0.71 0.72 0.72 0.70 0.74 0.77

GEFSGL_prec_meanprecacc_078.txt.gz
Total_Precipitation_Accumulation
0.03 0.03 0.03 0.03 0.04 0.07 0.12 0.16 0.19 0.20 0.21 0.20 0.18 0.15 0.12 0.12 0.15 0.18 0.21 0.27 0.33 0.42 0.51 0.51 0.50 0.62 0.70 0.65 0.63 0.64 0.68 0.74 0.73 0.70 0.83 0.87 0.76 0.57 0.50 0.51 0.52 0.53 0.44
0.01 0.02 0.02 0.02 0.02 0.03 0.05 0.09 0.16 0.21 0.22 0.21 0.20 0.17 0.12 0.10 0.12 0.14 0.16 0.21 0.29 0.39 0.55 0.71 0.72 0.67 0.65 0.64 0.63 0.64 0.70 0.81 0.82 0.73 0.78 0.86 0.82 0.72 0.61 0.52 0.45 0.46 0.49
0.01 0.01 0.02 0.03 0.04 0.05 0.05 0.04 0.06 0.11 0.17 0.19 0.19 0.18 0.16 0.14 0.13 0.11 0.12 0.15 0.20 0.25 0.38 0.61 0.80 0.93 0.86 0.67 0.58 0.56 0.64 0.78 0.88 0.83 0.83 0.95 0.98 0.88 0.72 0.56 0.46 0.43 0.42
0.01 0.02 0.04 0.06 0.07 0.06 0.06 0.06 0.06 0.07 0.10 0.15 0.19 0.20 0.19 0.17 0.15 0.13 0.14 0.15 0.16 0.19 0.26 0.36 0.49 0.70 0.86 0.91 0.78 0.65 0.64 0.72 0.81 0.84 0.96 1.18 1.21 1.09 0.83 0.66 0.58 0.49 0.44
0.06 0.09 0.09 0.08 0.08 0.08 0.10 0.10 0.10 0.10 0.11 0.15 0.21 0.22 0.22 0.19 0.13 0.14 0.17 0.15 0.17 0.18 0.21 0.26 0.28 0.36 0.49 0.65 0.77 0.82 0.80 0.74 0.79 0.86 1.10 1.51 1.55 1.29 0.92 0.73 0.67 0.64 0.54
0.09 0.13 0.14 0.16 0.16 0.15 0.15 0.14 0.14 0.14 0.16 0.19 0.22 0.25 0.25 0.18 0.14 0.12 0.14 0.17 0.22 0.26 0.27 0.28 0.25 0.23 0.26 0.36 0.47 0.61 0.76 0.80 0.80 0.86 1.07 1.38 1.55 1.44 1.18 0.98 0.76 0.63 0.58
0.09 0.10 0.12 0.17 0.21 0.22 0.18 0.19 0.21 0.23 0.24 0.25 0.25 0.32 0.35 0.33 0.23 0.15 0.12 0.16 0.22 0.28 0.34 0.38 0.26 0.16 0.23 0.29 0.34 0.40 0.48 0.58 0.71 0.80 0.95 1.17 1.46 1.59 1.43 1.07 0.90 0.81 0.65
0.11 0.12 0.14 0.19 0.24 0.24 0.23 0.25 0.29 0.31 0.31 0.31 0.30 0.35 0.43 0.41 0.35 0.25 0.19 0.20 0.24 0.28 0.33 0.38 0.37 0.30 0.29 0.33 0.37 0.36 0.36 0.38 0.44 0.56 0.70 0.94 1.23 1.55 1.69 1.45 1.25 1.10 0.91
0.16 0.18 0.20 0.26 0.28 0.27 0.28 0.32 0.34 0.35 0.32 0.31 0.30 0.33 0.42 0.47 0.41 0.30 0.27 0.26 0.28 0.31 0.34 0.39 0.43 0.40 0.31 0.26 0.32 0.34 0.34 0.34 0.34 0.39 0.51 0.70 0.95 1.25 1.58 1.70 1.42 1.09 0.95
0.22 0.25 0.26 0.30 0.38 0.40 0.40 0.44 0.44 0.44 0.39 0.35 0.31 0.34 0.39 0.50 0.50 0.35 0.31 0.30 0.33 0.37 0.49 0.54 0.49 0.43 0.36 0.25 0.28 0.33 0.32 0.30 0.36 0.37 0.39 0.48 0.63 0.87 1.20 1.38 1.39 1.10 0.87
0.24 0.26 0.29 0.35 0.41 0.41 0.44 0.46 0.47 0.45 0.43 0.41 0.37 0.36 0.39 0.45 0.51 0.40 0.34 0.35 0.39 0.48 0.58 0.68 0.66 0.51 0.37 0.28 0.26 0.29 0.26 0.31 0.39 0.43 0.44 0.49 0.62 0.79 0.96 1.17 1.29 1.19 0.93
0.25 0.27 0.29 0.32 0.33 0.32 0.39 0.43 0.46 0.47 0.45 0.42 0.40 0.37 0.40 0.38 0.37 0.39 0.29 0.27 0.35 0.48 0.60 0.78 0.83 0.68 0.50 0.37 0.29 0.25 0.23 0.24 0.31 0.36 0.39 0.41 0.49 0.61 0.79 1.05 1.26 1.26 1.11
0.26 0.28 0.28 0.27 0.28 0.31 0.37 0.38 0.40 0.42 0.40 0.35 0.32 0.35 0.39 0.41 0.35 0.29 0.24 0.18 0.24 0.41 0.56 0.81 0.91 0.79 0.66 0.52 0.41 0.36 0.30 0.26 0.29 0.31 0.29 0.30 0.35 0.46 0.67 1.00 1.34 1.46 1.35
0.27 0.27 0.26 0.27 0.29 0.35 0.42 0.44 0.45 0.44 0.38 0.32 0.29 0.34 0.37 0.39 0.38 0.37 0.35 0.26 0.25 0.37 0.45 0.59 0.74 0.80 0.74 0.68 0.58 0.46 0.37 0.34 0.32 0.34 0.33 0.36 0.45 0.56 0.68 0.83 1.13 1.37 1.38
0.32 0.29 0.28 0.29 0.31 0.34 0.38 0.41 0.37 0.37 0.30 0.28 0.29 0.37 0.40 0.40 0.34 0.30 0.36 0.38 0.38 0.44 0.45 0.58 0.74 0.87 0.89 0.85 0.82 0.72 0.61 0.54 0.47 0.45 0.50 0.51 0.56 0.62 0.65 0.74 0.94 1.13 1.13
0.38 0.32 0.29 0.30 0.33 0.35 0.35 0.36 0.30 0.21 0.19 0.18 0.19 0.24 0.28 0.25 0.18 0.14 0.19 0.24 0.26 0.29 0.35 0.52 0.69 0.86 0.99 1.03 1.06 1.01 0.90 0.80 0.71 0.68 0.70 0.67 0.65 0.70 0.71 0.73 0.84 0.98 0.99
0.37 0.33 0.29 0.28 0.31 0.31 0.31 0.35 0.38 0.32 0.17 0.13 0.15 0.16 0.19 0.15 0.13 0.14 0.16 0.20 0.20 0.19 0.23 0.41 0.57 0.73 0.91 1.05 1.09 1.05 0.97 0.95 0.95 0.93 0.92 0.88 0.80 0.78 0.80 0.78 0.78 0.90 0.96
0.32 0.31 0.29 0.30 0.31 0.29 0.27 0.29 0.35 0.43 0.40 0.31 0.22 0.17 0.18 0.15 0.18 0.21 0.20 0.21 0.20 0.18 0.22 0.38 0.52 0.65 0.80 0.98 1.03 1.03 1.06 1.08 1.08 1.03 1.04 1.03 0.98 0.91 0.90 0.87 0.82 0.82 0.90
0.29 0.25 0.21 0.21 0.24 0.26 0.27 0.29 0.32 0.37 0.44 0.50 0.42 0.25 0.22 0.20 0.28 0.35 0.28 0.28 0.32 0.31 0.31 0.37 0.45 0.57 0.74 0.91 1.04 1.09 1.12 1.10 1.09 1.10 1.09 1.09 1.10 1.03 0.93 0.90 0.92 0.88 0.86
0.22 0.21 0.15 0.12 0.15 0.22 0.28 0.31 0.32 0.36 0.43 0.53 0.49 0.34 0.28 0.31 0.47 0.57 0.45 0.46 0.48 0.46 0.46 0.51 0.53 0.60 0.77 0.93 1.05 1.14 1.19 1.16 1.12 1.12 1.12 1.12 1.11 1.07 0.96 0.93 0.99 0.96 0.83
0.17 0.15 0.13 0.09 0.15 0.23 0.29 0.30 0.31 0.38 0.47 0.56 0.52 0.34 0.29 0.38 0.63 0.74 0.68 0.67 0.66 0.63 0.62 0.59 0.54 0.58 0.72 0.88 0.98 1.09 1.18 1.17 1.10 1.07 1.12 1.15 1.08 1.01 0.96 0.96 0.99 1.01 0.95
0.16 0.16 0.15 0.14 0.21 0.26 0.25 0.32 0.42 0.50 0.55 0.60 0.54 0.41 0.38 0.51 0.72 0.79 0.74 0.74 0.73 0.71 0.67 0.63 0.59 0.61 0.72 0.86 0.92 1.01 1.14 1.16 1.12 1.08 1.12 1.19 1.13 1.02 0.97 0.94 0.94 1.00 1.01
0.21 0.21 0.18 0.21 0.27 0.26 0.29 0.38 0.50 0.55 0.57 0.59 0.58 0.57 0.59 0.67 0.74 0.77 0.76 0.72 0.70 0.72 0.74 0.76 0.76 0.76 0.81 0.91 0.94 1.00 1.13 1.12 1.08 1.06 1.10 1.13 1.12 1.05 1.01 0.94 0.90 0.93 0.95
0.18 0.20 0.20 0.20 0.21 0.26 0.31 0.35 0.41 0.46 0.48 0.51 0.54 0.56 0.58 0.62 0.67 0.68 0.68 0.68 0.70 0.72 0.76 0.82 0.84 0.84 0.87 0.90 0.92 0.92 0.99 0.96 0.89 0.88 0.93 1.00 1.01 0.99 0.97 0.92 0.87 0.86 0.89
0.18 0.21 0.21 0.22 0.22 0.24 0.29 0.35 0.41 0.45 0.49 0.50 0.50 0.53 0.55 0.55 0.59 0.64 0.68 0.70 0.69 0.71 0.70 0.71 0.74 0.78 0.76 0.72 0.73 0.76 0.78 0.72 0.67 0.68 0.79 0.88 0.88 0.86 0.83 0.80 0.80 0.83 0.89
0.19 0.24 0.28 0.31 0.31 0.29 0.32 0.39 0.45 0.45 0.47 0.46 0.50 0.53 0.58 0.61 0.61 0.65 0.66 0.66 0.65 0.67 0.64 0.65 0.67 0.63 0.62 0.60 0.56 0.57 0.54 0.51 0.52 0.55 0.60 0.70 0.76 0.76 0.76 0.77 0.75 0.80 0.84